GFSNGP_850_thetae_000.txt.gz
Theta_e
320 319 319 318 319 319 320 319 320 319 320 319 319 318 316 315 315 314 314 313 313 312 311 310 310 308 307 304 303 301 299 298 297 297 297 296 295 294 293 292 292 291 290 289
318 318 318 318 318 318 318 318 318 319 320 318 316 316 315 315 314 314 314 312 311 310 309 309 308 308 304 302 301 300 298 298 299 298 296 295 294 293 292 292 291 289 289 288
319 316 315 317 316 317 318 318 318 318 317 316 316 315 315 315 314 313 312 311 311 309 308 308 307 305 304 301 301 300 300 300 297 297 295 294 293 292 292 291 289 288 288 288
317 314 319 317 317 316 317 317 317 316 315 315 315 315 314 314 312 311 311 310 309 308 308 307 306 305 304 302 301 300 299 297 297 295 294 293 292 292 290 289 288 287 287 287
318 319 317 316 316 317 316 316 316 316 316 315 315 314 313 313 311 311 310 309 307 307 306 305 303 303 302 301 300 298 297 296 294 294 293 292 291 289 288 288 287 287 286 286
320 319 318 317 314 314 315 316 316 315 315 315 313 314 312 311 310 310 309 307 306 305 305 302 302 300 299 299 298 296 296 295 293 292 291 290 289 288 287 286 286 286 285 285
317 317 316 315 315 315 318 317 314 315 314 313 313 313 311 310 311 309 308 306 305 304 301 301 301 300 298 296 296 296 294 292 291 291 290 289 288 287 286 286 285 285 285 285
314 317 318 316 317 316 315 316 314 313 312 312 312 311 311 310 310 307 306 304 304 301 300 300 299 298 296 294 293 292 291 291 290 289 289 288 287 286 285 285 285 285 284 283
315 316 315 315 315 315 314 314 313 313 312 311 310 309 309 309 308 306 304 303 300 300 300 299 297 294 293 293 292 292 291 290 289 288 288 287 286 285 285 285 284 283 283 282
314 313 313 313 313 313 314 313 311 311 311 309 308 305 305 307 306 303 302 300 299 299 298 296 295 293 293 291 291 290 289 288 287 288 287 286 285 285 284 284 283 283 282 281
312 313 312 313 313 313 313 312 310 309 306 304 303 303 303 305 303 301 299 298 298 297 297 295 294 293 291 291 290 288 287 287 287 287 286 285 285 285 284 283 283 282 282 281
313 312 313 313 313 312 311 310 309 306 303 303 303 303 303 302 300 298 297 297 297 297 295 293 293 291 291 290 288 287 287 287 287 286 285 285 284 284 283 282 282 282 282 281
312 311 311 312 311 310 309 306 305 303 302 303 303 301 299 299 297 297 298 298 296 294 293 292 291 290 290 288 288 287 287 287 286 285 284 284 283 282 282 282 281 281 281 281
310 311 309 309 309 307 305 304 302 302 302 302 301 299 298 298 298 298 296 294 293 292 292 291 289 289 289 288 287 287 286 286 285 284 283 283 282 282 282 282 281 281 281 281
309 309 308 305 304 303 302 302 301 302 301 299 299 298 297 297 297 295 294 293 291 290 290 290 288 288 287 287 287 287 286 286 285 284 283 283 283 282 282 281 281 281 281 281
307 305 304 302 302 301 301 301 301 301 298 298 296 295 294 294 294 294 293 291 289 288 288 288 288 288 288 287 287 286 287 286 285 284 283 282 282 281 281 280 280 280 280 279
303 302 301 301 301 300 300 300 301 299 296 295 294 294 294 293 291 290 290 288 288 288 288 288 288 289 288 288 286 285 286 285 284 283 282 282 281 280 280 280 280 280 279 279
301 300 300 300 300 300 299 299 299 296 296 295 294 292 289 289 289 288 288 288 288 287 287 290 291 289 288 287 286 285 284 284 283 282 282 282 281 280 280 279 279 279 279 279
299 299 298 298 299 299 297 298 299 297 297 296 290 289 289 289 289 289 288 288 288 289 290 290 289 289 288 287 286 285 284 283 282 282 282 281 280 280 279 279 278 278 278 278
295 296 297 297 297 298 297 295 297 296 295 289 290 289 288 288 288 288 288 289 290 291 291 290 289 288 287 287 286 285 284 284 282 281 281 280 280 279 279 278 278 277 277 277
295 294 296 297 297 297 297 295 296 295 289 290 290 289 289 289 289 288 287 287 287 288 288 288 287 287 287 286 286 285 284 284 281 281 280 280 279 279 278 278 277 277 276 276
295 295 296 296 296 296 296 296 294 290 290 290 289 289 290 289 287 287 287 287 286 286 286 286 286 286 286 286 286 285 284 283 281 280 280 279 278 278 277 277 277 276 276 275
295 296 296 296 295 295 294 293 292 289 290 290 289 290 289 288 287 286 287 286 286 286 286 286 286 286 286 286 286 285 284 282 280 280 279 278 278 277 277 277 276 276 275 274
295 296 295 295 294 293 292 292 290 290 290 290 289 289 288 287 287 287 287 286 286 286 286 286 286 286 286 286 285 284 283 282 281 280 279 278 277 277 277 276 276 275 274 274
296 296 295 295 294 293 292 290 290 290 290 289 290 289 287 286 286 286 286 286 286 286 286 285 286 286 286 286 285 284 284 283 282 281 279 278 278 277 276 276 275 274 274 273
296 295 294 293 293 292 290 291 291 291 291 291 291 289 287 286 286 286 285 285 285 285 285 285 285 285 286 286 285 284 284 283 283 282 281 279 278 277 277 276 275 275 274 273
295 293 294 292 291 291 291 292 291 291 291 290 290 289 286 286 286 286 285 285 286 286 285 285 285 284 285 285 284 284 284 283 283 282 281 280 279 277 277 276 276 275 274 274

GFSNGP_850_thetae_006.txt.gz
Theta_e
314 315 316 317 317 317 317 314 313 314 313 313 312 312 313 313 312 312 312 311 310 309 308 309 306 305 306 307 305 303 301 301 297 296 295 295 296 295 296 295 293 293 292 292
315 315 316 316 316 315 314 314 313 312 312 313 313 313 313 312 312 312 312 311 308 308 309 308 306 306 306 304 301 300 301 301 298 297 296 297 298 295 294 293 293 293 292 291
315 311 312 315 313 312 312 312 311 311 310 313 312 313 312 312 312 312 311 309 309 310 309 306 305 305 304 301 299 299 299 299 299 298 297 295 295 294 293 292 292 291 289 288
309 310 317 314 311 312 312 311 311 313 313 312 312 312 312 311 311 311 309 309 309 310 308 307 304 303 301 299 298 298 297 298 298 297 296 294 292 292 292 291 289 288 287 286
311 314 312 313 312 313 312 312 312 313 313 313 313 312 311 311 310 309 308 308 309 307 306 303 303 301 299 299 297 299 295 294 292 293 293 293 292 291 289 288 287 286 286 285
309 313 314 309 309 313 313 312 313 313 313 313 312 312 311 310 307 305 306 308 307 305 303 301 301 300 299 296 295 294 293 292 292 292 290 289 288 287 287 286 286 285 285 284
298 308 305 307 310 313 308 310 312 312 312 312 312 311 310 308 304 304 306 306 304 302 300 300 300 298 295 292 292 293 293 292 290 289 288 287 287 287 286 285 285 284 284 284
306 309 312 311 311 310 310 311 310 310 311 312 310 308 307 304 303 304 303 302 299 298 299 298 298 295 293 293 294 293 291 290 288 287 287 287 287 286 285 285 284 284 283 282
306 307 309 310 311 311 311 310 310 311 311 310 307 305 304 303 303 302 300 298 297 298 298 297 295 294 294 294 292 291 290 287 287 287 286 286 286 285 284 284 284 282 281 281
308 310 310 310 311 310 310 311 311 309 306 305 303 303 302 303 301 300 297 297 297 297 297 295 295 294 293 293 291 288 287 286 286 286 286 285 285 284 284 283 282 282 281 281
311 311 310 310 310 310 310 310 306 305 304 303 300 301 303 302 299 296 297 297 297 297 296 294 294 293 292 290 288 287 287 286 286 286 285 285 284 283 282 282 282 281 280 281
311 310 310 310 310 309 308 305 304 301 302 300 300 301 302 299 297 297 298 298 296 294 293 293 292 292 291 288 287 287 287 286 286 286 285 284 284 283 282 282 281 280 280 280
311 311 311 310 309 307 304 303 302 301 300 301 302 302 300 298 298 297 298 296 295 294 293 292 292 291 289 287 287 288 288 287 287 286 286 284 283 282 281 281 280 280 280 280
310 310 309 308 304 302 301 301 300 300 300 301 301 301 299 298 294 295 295 294 294 294 293 291 291 290 289 288 288 288 288 287 286 286 285 284 282 282 281 280 280 279 279 279
309 306 305 302 300 299 298 299 300 300 299 298 297 298 298 296 294 294 294 293 293 293 291 288 290 289 288 288 289 288 288 286 286 285 284 283 282 282 281 280 279 278 279 279
306 303 302 300 297 297 298 299 300 299 298 298 297 297 297 297 295 292 290 289 289 288 288 288 287 287 287 288 289 289 288 286 284 283 283 282 282 281 280 279 278 278 278 278
302 299 297 296 295 295 295 296 297 297 297 297 297 296 297 296 291 289 289 289 288 288 287 287 288 290 290 289 289 288 287 285 284 283 282 282 281 280 279 279 278 278 277 277
298 296 295 295 293 294 294 295 295 296 297 296 296 295 295 291 289 290 289 288 288 288 289 289 288 289 288 288 287 286 286 284 283 283 281 280 280 279 279 278 278 277 277 277
298 298 297 295 294 293 294 295 295 295 295 294 294 294 292 288 290 289 288 288 288 287 286 285 286 286 285 286 286 286 285 284 283 282 281 280 280 279 278 278 277 277 276 276
298 297 297 295 293 294 295 295 294 294 294 293 292 293 289 290 289 289 288 286 286 286 285 286 286 285 285 285 286 285 285 283 282 281 280 280 279 278 278 277 277 277 276 275
297 297 296 294 293 294 295 295 295 294 292 293 292 290 290 290 289 288 287 286 286 285 285 286 285 285 284 286 285 285 283 283 281 281 280 280 279 278 277 277 276 276 275 275
295 296 295 294 293 294 294 294 295 295 292 292 291 290 290 290 289 288 286 286 286 285 285 285 285 285 285 286 286 284 283 282 281 281 280 280 279 278 277 276 276 276 275 274
295 295 294 294 294 295 295 294 295 293 292 291 290 290 289 289 288 287 286 286 285 285 285 285 284 285 286 286 285 283 282 282 281 281 281 280 279 278 277 276 276 275 275 274
293 293 294 294 294 294 294 294 293 292 292 291 290 289 290 289 288 287 286 286 285 284 284 284 284 284 284 285 284 283 282 282 282 282 281 280 280 279 278 277 276 276 274 273
293 294 294 294 294 294 294 293 293 292 291 290 290 290 290 289 287 286 285 285 285 285 285 284 284 283 283 283 283 282 282 283 283 283 282 281 280 279 278 277 276 275 274 273
294 294 294 294 293 293 293 293 293 292 291 290 290 290 290 289 289 286 285 285 284 285 284 284 284 284 283 283 283 282 282 283 284 283 282 282 281 280 279 277 277 275 274 273
293 293 293 293 292 293 293 294 293 292 291 291 291 290 290 289 289 287 285 284 284 284 284 284 283 284 283 283 283 283 282 283 283 283 282 282 281 280 279 278 277 276 275 274

GFSNGP_850_thetae_009.txt.gz
Theta_e
312 312 313 315 315 316 316 314 315 314 313 312 310 311 313 313 312 312 311 311 311 309 308 309 309 305 306 305 304 302 300 299 300 297 294 294 294 295 295 295 294 293 293 293
313 313 313 315 314 314 314 314 313 312 311 309 312 313 312 312 312 311 310 311 310 308 308 309 307 307 306 303 302 299 298 299 299 297 295 295 296 295 293 294 294 293 292 290
309 309 308 309 310 312 312 310 311 310 309 311 311 312 312 312 312 311 310 310 308 307 307 306 307 304 302 301 299 297 297 297 298 297 296 295 294 292 292 292 291 290 288 287
304 311 312 311 310 310 310 310 309 309 311 312 312 312 312 312 311 310 309 305 304 303 305 306 304 302 300 300 299 299 299 295 294 293 292 292 292 292 291 289 288 287 286 286
310 311 309 311 310 312 311 310 310 312 311 311 311 311 311 311 310 308 304 303 302 304 305 303 299 299 299 298 295 295 293 292 293 292 291 291 289 288 287 287 286 286 285 285
308 312 313 309 307 310 312 311 311 313 311 310 309 310 309 309 307 303 303 304 304 303 301 298 299 299 299 298 295 294 293 292 292 291 289 288 287 287 286 286 286 285 285 284
305 307 306 306 309 310 311 310 310 310 310 309 308 310 309 306 303 302 301 303 301 299 297 299 299 298 296 294 293 293 293 292 290 288 287 287 286 286 286 285 285 284 284 283
305 308 308 310 311 310 310 310 310 309 310 311 310 307 304 301 300 301 302 300 297 297 298 298 297 295 294 293 293 293 291 289 287 286 286 286 286 286 285 284 284 283 283 282
306 307 308 310 310 310 310 310 309 310 310 307 305 302 300 300 301 302 299 296 296 297 297 296 296 293 294 293 292 292 288 287 286 286 286 286 285 285 284 283 283 282 282 281
308 309 310 310 311 311 310 310 310 306 304 303 300 299 298 299 302 301 298 295 296 297 297 295 296 293 293 292 291 288 287 287 287 286 286 285 285 285 284 283 282 282 281 280
310 311 311 311 310 310 309 310 307 305 302 301 299 299 301 301 302 299 297 296 297 296 295 293 293 292 292 291 288 287 287 287 287 286 286 286 285 284 283 282 282 281 280 280
312 311 310 310 310 309 306 303 302 300 300 300 301 301 300 301 300 299 298 295 295 294 294 293 293 292 292 290 288 287 288 288 287 286 286 285 285 284 282 281 281 280 279 279
311 311 311 310 307 302 302 300 299 300 301 301 300 300 299 299 298 299 296 295 295 294 294 293 292 291 291 290 288 287 288 288 288 286 285 285 284 282 282 281 280 280 279 279
311 310 309 306 304 300 298 299 299 299 299 300 298 297 297 297 297 297 295 294 294 292 293 292 291 289 290 290 288 288 288 288 288 286 285 283 282 282 281 280 280 279 278 278
308 307 307 304 299 297 296 295 296 299 299 298 297 297 296 296 297 297 295 293 290 290 289 289 288 288 288 287 287 288 288 288 286 284 283 282 282 281 281 280 279 278 278 278
304 303 300 297 296 294 293 293 294 295 296 296 296 296 295 295 295 294 292 289 290 289 289 288 287 287 287 289 289 288 288 287 285 284 283 282 281 281 280 279 278 277 277 277
302 298 296 295 297 296 295 293 294 295 295 295 295 294 293 293 293 292 289 290 289 288 287 287 288 288 288 287 287 287 286 286 284 283 282 281 280 280 279 278 278 277 277 276
297 298 298 296 296 295 293 292 294 294 294 293 293 292 293 292 292 288 290 289 288 288 288 287 285 285 285 285 286 286 285 285 283 283 282 281 280 279 279 278 277 277 276 276
298 297 297 297 296 295 293 293 294 294 294 294 293 292 291 292 289 290 290 288 288 287 286 285 285 285 284 284 284 285 285 284 283 281 281 280 279 279 278 277 277 276 276 275
296 294 295 296 296 295 294 293 294 294 293 294 294 292 292 291 290 290 288 287 286 286 285 285 285 284 285 284 285 284 284 283 282 281 281 280 279 279 278 277 277 276 275 275
293 293 294 294 295 294 294 294 294 295 294 294 293 292 292 290 290 289 289 287 286 285 285 285 284 284 283 284 285 285 283 283 282 281 281 280 280 279 277 277 276 276 275 274
293 293 293 292 292 293 293 293 294 294 294 293 291 292 291 290 290 289 288 287 286 285 284 284 284 283 284 285 285 283 283 282 281 281 281 280 280 279 278 277 276 276 275 274
292 292 293 293 293 293 293 294 293 293 293 293 292 291 290 290 289 288 288 286 285 285 284 284 284 283 283 284 285 283 282 282 281 282 281 281 280 279 278 277 276 276 275 274
292 292 293 293 293 293 294 294 293 293 293 293 292 291 290 289 290 288 287 285 285 284 284 284 283 283 283 282 282 283 282 282 281 283 283 281 280 279 279 277 277 276 274 274
293 293 293 293 293 293 293 292 292 293 293 293 292 290 289 289 290 289 287 285 284 284 284 284 284 283 283 283 282 282 281 281 282 283 283 282 281 280 279 278 277 276 274 274
293 292 292 292 291 291 292 292 292 292 292 292 291 290 289 289 289 288 288 286 284 284 283 283 283 283 283 283 283 283 283 282 283 283 283 282 282 281 280 279 277 276 275 274
292 292 292 291 291 291 291 291 291 291 291 291 291 290 289 290 289 288 287 286 283 284 283 283 283 283 282 283 283 283 283 282 282 282 282 282 281 281 281 280 278 277 276 275

GFSNGP_850_thetae_012.txt.gz
Theta_e
311 311 311 313 313 313 313 312 315 314 312 312 311 308 312 313 313 312 312 311 310 310 307 305 305 305 303 305 303 300 300 298 297 297 296 294 293 294 294 294 294 294 293 294
311 309 310 311 311 312 312 312 312 313 312 310 310 312 312 311 311 312 311 310 308 304 303 303 302 302 304 302 299 299 298 297 297 296 296 296 295 294 293 292 292 292 290 290
307 308 307 306 308 311 312 310 310 311 309 309 311 311 310 310 311 311 309 306 305 304 302 301 303 302 299 298 298 299 299 298 295 293 293 292 292 291 292 292 290 289 288 287
304 310 309 310 309 310 310 308 308 307 307 310 311 309 309 310 310 309 306 304 301 301 304 303 301 298 298 299 298 297 297 295 294 293 292 291 290 289 288 288 287 286 286 285
313 312 308 311 309 311 311 308 309 309 311 310 310 309 309 310 309 307 304 300 300 303 303 299 297 298 299 297 297 295 293 293 292 292 291 289 287 287 287 286 286 285 285 284
308 311 311 308 307 308 310 310 310 312 310 310 309 308 308 304 302 300 299 299 302 301 297 296 298 298 297 296 293 293 293 293 291 290 288 287 286 286 286 286 285 284 284 284
307 310 308 306 307 309 311 310 310 309 309 309 306 307 303 302 300 299 300 301 301 297 296 296 296 296 296 294 293 292 292 291 289 287 286 286 286 285 285 285 284 284 283 283
303 308 308 307 309 310 310 309 309 309 308 309 306 305 301 300 299 299 300 301 298 295 296 296 297 296 294 292 292 292 292 289 287 286 286 286 286 285 285 285 284 283 283 283
309 306 307 308 309 311 310 310 309 308 308 305 303 302 301 299 300 300 301 300 297 295 295 296 295 293 295 293 292 291 289 287 287 287 287 286 286 285 285 284 283 282 282 281
308 309 309 312 312 310 309 309 308 306 303 303 300 299 300 300 300 300 301 299 298 296 295 293 293 292 292 292 291 290 287 287 287 288 287 286 286 285 285 283 282 281 281 280
308 311 311 311 310 310 309 307 305 302 301 299 300 301 301 301 298 299 299 298 298 296 294 293 293 293 293 292 291 289 287 287 287 288 287 286 286 285 284 283 282 281 280 279
311 311 311 311 310 308 305 303 301 298 299 300 300 300 300 298 297 297 297 297 297 295 295 294 294 293 292 291 290 289 288 287 288 288 288 286 285 284 283 282 281 280 279 278
311 311 310 309 308 306 300 298 299 298 297 299 300 299 298 297 296 296 296 297 295 294 293 292 292 292 291 289 290 289 288 288 288 288 287 285 284 283 282 282 280 279 278 278
309 308 308 306 303 299 298 296 295 294 294 296 298 296 296 296 295 295 295 296 295 294 290 290 290 288 288 288 288 288 287 288 288 287 286 284 283 282 281 280 279 279 278 277
306 306 303 298 297 296 295 295 295 294 293 293 294 294 295 295 293 292 293 293 294 290 290 290 289 288 287 287 287 288 288 287 287 286 284 283 282 281 280 279 279 278 277 277
303 300 297 297 297 296 295 295 293 292 293 293 294 293 293 293 291 291 293 293 289 289 290 289 288 287 287 286 287 286 287 286 286 284 283 283 281 280 279 279 278 277 277 276
298 297 297 297 296 296 295 294 294 293 292 293 293 294 294 293 292 290 291 289 289 290 288 288 288 286 285 285 284 284 285 285 285 284 283 282 281 280 279 278 277 277 276 276
297 296 296 296 296 295 296 296 295 294 293 294 294 293 294 293 292 291 291 289 290 289 288 288 286 285 284 283 284 284 284 285 284 283 283 282 281 280 279 278 277 277 276 275
295 295 293 292 293 295 295 296 296 295 294 293 293 295 294 293 292 291 290 289 289 288 287 286 285 284 284 283 283 283 284 283 283 281 282 281 281 280 278 277 277 276 275 275
291 292 292 293 293 293 292 292 292 293 293 293 294 293 293 291 291 291 289 289 289 287 285 285 284 284 283 283 283 284 283 283 282 281 281 281 281 280 279 277 277 276 275 275
292 293 292 292 292 292 292 293 293 293 293 293 293 293 292 292 291 290 289 289 288 287 285 284 283 283 283 282 283 284 283 283 282 281 281 281 281 280 279 278 277 276 275 274
293 292 292 292 292 292 292 293 293 293 293 293 293 293 292 292 290 289 289 289 288 286 284 284 283 283 282 282 283 283 282 282 282 281 281 282 281 280 279 278 277 276 276 274
292 292 292 292 292 292 292 292 292 292 292 292 293 292 292 291 290 289 289 289 287 285 285 284 283 283 283 282 282 282 282 282 281 281 282 282 282 281 280 279 277 277 275 274
292 292 292 292 292 292 292 291 291 291 291 292 293 293 292 291 289 289 289 288 287 285 284 284 283 283 283 283 282 282 282 281 281 281 282 283 282 282 281 280 278 277 276 274
293 292 291 291 291 291 290 290 290 291 291 291 291 291 291 290 289 289 289 288 287 286 284 284 283 283 283 283 282 282 283 283 281 282 282 282 282 282 281 280 279 277 276 274
292 291 291 291 291 290 290 290 290 290 290 291 290 290 290 289 289 289 288 288 288 285 283 283 283 283 282 282 282 283 283 282 282 282 282 282 282 282 281 281 280 279 277 276
292 291 291 291 291 289 290 290 291 291 291 290 290 291 290 289 289 289 288 288 286 284 283 283 283 282 282 281 281 281 282 282 282 282 282 281 281 281 281 281 280 279 278 277

GFSNGP_850_thetae_015.txt.gz
Theta_e
313 313 312 313 314 313 315 315 317 316 315 314 314 312 311 311 310 310 310 310 309 307 305 303 302 301 302 302 299 298 297 298 298 297 297 297 296 295 294 294 292 291 291 290
312 310 310 311 312 312 313 314 314 314 315 313 310 311 311 310 309 310 309 307 304 302 301 301 303 303 301 297 297 298 297 298 297 297 295 294 292 291 290 290 290 290 289 288
312 308 309 312 309 312 312 312 313 313 312 310 311 311 310 310 309 307 304 303 300 299 299 302 303 298 297 297 298 297 296 295 293 292 292 291 291 290 288 287 287 287 286 286
313 309 315 312 309 310 311 311 310 309 309 309 311 310 309 307 306 305 304 304 302 299 301 302 298 296 297 297 296 295 293 293 293 292 291 290 289 287 286 286 286 286 285 285
313 313 311 312 310 311 311 311 309 310 311 310 311 310 309 306 305 304 302 298 299 300 301 298 296 296 296 296 296 293 293 292 292 292 290 287 286 286 286 285 285 285 285 284
310 314 315 312 308 308 310 314 310 310 310 310 310 310 311 304 304 300 298 299 300 301 299 296 295 296 296 296 295 293 292 291 291 289 286 286 286 286 285 285 285 285 284 283
311 311 311 309 307 308 314 314 310 309 309 308 308 307 305 303 300 299 300 300 301 301 298 295 295 294 294 295 295 293 292 291 290 287 287 287 286 286 286 285 285 284 284 283
307 309 311 307 308 312 311 309 309 309 308 308 306 303 301 300 300 300 298 300 301 299 298 296 294 293 292 291 292 292 292 291 288 287 287 287 287 286 286 285 284 284 283 282
310 312 308 307 309 309 309 309 308 308 306 304 302 300 299 300 300 300 298 298 300 299 298 298 293 293 291 290 292 292 291 290 287 287 287 288 287 286 285 285 284 282 281 281
309 311 310 311 311 309 309 307 307 306 304 300 300 300 300 300 300 299 297 296 297 297 297 297 294 293 293 293 292 292 291 289 287 287 287 288 287 286 285 283 282 281 280 280
309 311 310 310 310 310 308 305 303 300 300 299 299 299 299 299 299 298 296 296 295 296 297 296 295 294 293 293 293 291 290 289 288 287 287 287 286 284 283 282 282 280 280 279
313 311 310 310 309 306 304 299 298 297 295 294 294 296 299 299 297 296 295 295 294 295 295 294 293 292 291 290 291 290 290 289 288 287 287 287 285 284 283 282 281 280 279 278
311 310 308 306 304 299 299 297 295 295 294 294 294 293 294 294 294 294 294 291 291 292 293 292 290 290 290 288 288 288 288 288 287 287 287 286 284 284 282 282 280 279 278 277
307 307 306 303 300 297 295 295 296 296 294 293 292 292 293 293 293 293 293 292 291 291 292 291 289 289 288 287 287 287 287 287 287 286 286 284 284 283 282 280 279 279 278 277
304 304 300 297 296 297 297 296 295 294 294 294 293 292 293 293 292 293 293 292 290 291 290 289 289 288 287 287 286 286 286 286 286 285 284 283 283 282 281 280 279 278 277 277
298 297 297 297 296 295 295 295 295 295 294 294 294 293 293 293 293 293 293 292 291 291 289 289 289 287 286 285 284 284 284 285 285 285 284 283 282 282 281 279 278 277 277 276
297 296 295 295 293 292 293 293 295 296 296 296 295 294 293 293 294 294 292 291 290 289 289 289 288 287 285 284 283 283 283 283 284 284 283 282 282 281 280 279 278 277 276 275
295 294 293 292 292 292 292 292 293 293 292 292 292 292 292 293 293 293 291 289 289 289 289 288 287 285 284 283 283 283 283 283 283 282 282 282 281 281 280 279 278 277 276 275
292 291 291 291 292 292 291 291 292 292 292 292 293 293 293 293 292 292 291 290 289 289 288 287 285 284 284 282 282 283 283 283 282 282 281 281 281 281 280 279 278 277 276 275
291 291 292 292 291 291 291 292 292 292 292 293 293 293 293 293 292 292 291 290 289 289 288 287 285 284 282 283 282 283 282 282 282 282 281 281 281 281 281 280 278 277 276 275
291 292 292 292 292 291 291 292 292 292 292 292 292 292 292 292 292 292 291 289 289 289 287 286 284 283 283 282 281 282 282 282 282 282 281 281 282 281 281 280 279 278 277 275
292 292 292 292 292 291 291 291 291 291 291 291 291 291 291 292 292 291 290 289 289 288 287 285 284 283 282 282 281 281 282 282 282 281 281 281 282 282 281 281 280 278 277 275
292 292 292 292 291 291 291 291 291 290 290 290 290 291 291 292 292 290 290 289 289 288 286 285 284 283 283 282 282 281 281 282 281 281 281 282 282 282 282 281 280 278 277 276
292 292 292 292 291 291 291 291 290 290 290 290 290 290 290 290 291 290 289 289 289 288 286 285 284 283 282 283 282 282 282 282 282 282 282 282 282 282 282 281 280 280 278 276
293 292 292 291 291 290 290 290 290 290 290 290 290 290 290 290 290 289 289 289 288 287 287 285 283 282 282 283 282 282 282 282 282 282 282 282 282 282 282 281 280 280 279 277
292 292 291 291 291 290 290 289 289 290 290 289 290 289 289 289 289 289 288 287 286 286 286 284 283 283 282 282 282 282 282 282 282 282 282 282 281 281 281 281 281 280 279 278
291 291 291 291 291 289 288 289 289 289 289 289 290 289 289 290 289 289 288 288 288 287 285 284 283 282 282 281 281 281 281 281 282 282 282 282 282 281 281 281 281 280 280 279

GFSNGP_850_thetae_018.txt.gz
Theta_e
316 315 315 316 315 315 316 317 318 317 316 316 315 314 314 314 313 312 311 311 309 308 305 303 303 304 302 300 299 300 299 298 298 295 294 295 295 294 294 293 292 291 290 289
316 315 314 315 315 315 315 316 316 316 316 314 313 313 314 313 312 311 311 308 307 304 302 302 303 302 300 299 299 298 297 297 296 295 294 294 293 292 291 290 289 289 288 288
320 313 314 318 315 315 315 315 315 316 315 313 314 313 313 312 311 310 308 305 304 302 301 302 302 300 299 298 297 297 296 295 295 294 293 292 291 289 289 288 288 288 288 287
319 317 322 315 314 314 314 314 314 314 313 313 313 313 312 310 309 306 304 302 302 301 301 302 300 299 298 297 296 296 295 295 293 292 291 290 289 288 288 288 288 287 287 287
317 317 315 314 313 314 313 314 314 313 313 313 312 312 311 306 305 305 302 301 301 301 301 302 300 298 298 297 296 296 295 294 293 291 290 288 288 288 288 287 287 287 286 286
314 317 317 315 312 310 312 315 313 313 312 311 311 314 311 306 304 302 302 301 300 300 301 300 299 298 297 296 296 295 294 293 292 290 289 288 288 288 287 287 287 286 286 285
315 316 315 314 311 310 315 316 311 311 309 309 310 306 304 303 302 302 301 300 299 299 300 299 298 298 297 295 294 293 292 292 292 290 288 288 288 288 288 287 286 285 284 283
313 312 315 311 311 314 313 311 311 310 308 307 306 305 302 302 301 301 301 300 299 298 298 298 298 297 296 295 294 293 293 293 291 289 288 288 288 288 288 287 286 285 284 283
314 316 313 312 312 312 312 311 309 307 305 304 303 302 302 300 300 300 300 299 298 297 297 297 297 297 296 295 295 294 293 293 291 289 288 288 288 288 287 286 285 284 283 283
314 313 313 313 313 311 310 307 306 304 304 302 301 300 300 299 299 299 299 298 297 296 295 295 296 296 296 295 294 293 292 292 291 290 289 288 288 287 286 285 284 283 282 282
314 313 313 312 311 309 306 305 303 302 301 299 298 298 298 298 297 297 296 296 295 294 294 293 293 293 293 292 291 291 291 290 290 289 289 288 287 286 284 283 282 281 281 280
314 313 311 310 307 306 304 302 301 299 297 297 297 296 296 295 295 295 295 295 294 293 293 292 292 292 291 289 290 289 288 289 289 288 288 287 286 285 284 283 281 280 279 278
311 310 309 307 305 301 301 299 297 297 297 296 295 295 295 294 294 294 294 294 293 293 292 292 291 290 289 289 288 287 287 287 287 287 287 286 285 284 284 283 281 280 279 277
307 308 306 303 302 299 297 298 297 296 295 295 295 295 295 294 294 294 294 294 294 293 292 291 289 288 289 287 287 286 286 286 286 286 285 284 284 283 283 282 281 281 279 277
302 302 301 299 299 298 297 296 295 295 295 295 295 295 295 295 294 294 293 293 292 291 291 290 289 289 288 287 285 285 284 285 285 285 285 284 283 282 282 281 281 280 279 278
299 299 298 297 297 295 294 293 294 294 294 294 293 293 293 293 293 292 292 292 291 290 289 289 288 288 288 285 285 285 285 284 284 284 284 283 282 282 281 281 281 280 279 277
299 298 296 295 294 294 294 294 293 293 292 292 291 292 292 293 293 293 292 292 291 290 289 289 288 287 286 284 284 284 284 284 283 284 284 282 282 282 281 280 280 279 278 276
295 294 293 293 293 293 293 293 291 291 292 292 292 292 292 292 293 293 292 291 291 290 289 288 288 286 285 283 283 283 283 283 283 283 283 282 282 281 280 280 279 279 278 277
293 292 292 292 293 292 291 291 291 291 291 291 292 291 292 292 292 292 291 291 291 289 288 288 287 286 284 283 282 282 283 283 283 283 282 282 282 281 281 280 279 278 277 277
291 292 292 292 292 292 292 291 291 291 291 291 291 290 290 290 291 291 291 291 291 289 288 288 287 284 283 283 282 282 283 282 283 283 282 282 282 281 281 280 279 278 277 277
291 291 292 292 292 292 292 291 291 291 291 290 290 290 290 290 290 291 291 290 290 289 288 287 286 284 283 283 283 282 282 282 283 283 283 282 282 282 281 280 280 279 277 277
291 291 292 292 292 292 291 291 291 290 291 290 290 290 290 290 290 291 291 290 289 289 288 287 285 285 283 283 283 282 282 282 282 282 282 282 282 282 282 281 280 279 278 277
291 292 292 292 292 292 291 291 290 290 290 290 290 290 290 290 290 290 290 290 289 289 288 287 285 285 283 283 283 283 282 282 282 282 282 282 282 282 282 282 281 280 279 277
291 292 292 292 292 291 291 291 290 290 290 289 289 289 289 289 290 290 289 289 289 289 288 287 286 285 283 283 283 283 283 282 282 282 282 282 282 282 282 282 281 281 280 279
291 292 292 292 291 291 291 291 290 289 288 289 289 290 289 289 289 289 289 289 289 288 288 287 286 284 283 283 283 282 282 282 282 282 282 282 282 282 282 281 281 281 280 280
292 292 292 291 291 291 291 290 289 288 289 289 289 289 289 289 289 289 289 288 288 287 287 287 286 284 283 283 282 282 282 282 282 282 282 282 282 282 281 281 281 281 280 280
292 292 291 291 291 291 290 289 288 288 288 288 288 288 288 289 289 289 289 288 288 288 288 287 285 285 283 282 282 281 281 281 282 282 282 282 282 282 282 282 281 281 281 280

GFSNGP_850_thetae_021.txt.gz
Theta_e
318 317 316 316 316 316 316 317 319 318 318 318 317 316 315 315 314 313 313 312 312 310 308 306 304 304 304 302 301 299 299 299 298 298 297 296 296 295 294 293 292 291 290 290
317 316 315 316 315 316 316 317 317 317 317 316 315 314 315 314 313 313 312 311 309 306 305 303 303 303 302 301 300 299 298 298 297 297 296 295 294 293 292 291 290 290 290 290
320 317 317 321 317 316 316 316 316 317 316 315 315 314 314 313 312 313 310 307 304 304 303 303 303 302 301 300 299 298 297 297 297 296 295 294 293 291 290 290 290 289 289 289
320 317 324 318 316 315 315 315 315 315 315 315 314 314 312 312 310 309 307 306 305 303 302 302 302 302 300 299 298 298 297 297 296 295 294 293 291 290 290 289 289 289 289 288
319 319 316 316 315 315 315 315 315 315 315 314 313 312 312 309 308 307 306 305 303 302 301 300 301 301 300 299 298 297 296 296 295 294 294 292 290 290 290 289 289 289 288 288
317 320 319 317 315 313 314 317 315 314 314 313 312 314 312 308 306 306 304 303 302 301 300 300 300 300 299 299 298 297 296 295 294 294 293 291 290 290 289 289 289 288 288 286
317 318 316 315 314 313 316 318 314 313 312 310 310 308 307 306 304 303 303 302 301 301 300 299 298 298 298 297 297 297 296 295 294 294 293 291 290 290 289 289 288 288 287 285
316 315 316 314 313 316 315 314 313 311 309 306 306 306 305 304 303 302 301 301 301 300 299 298 297 296 296 296 297 297 296 296 295 294 292 291 290 290 289 289 288 287 286 285
317 318 315 314 313 314 314 314 311 308 306 306 305 304 302 301 300 300 300 299 299 298 297 296 295 295 295 295 295 295 295 295 293 293 291 291 290 290 289 288 287 285 284 284
316 315 314 314 314 313 311 309 308 306 305 304 303 301 300 300 299 298 297 296 296 296 295 295 294 294 293 293 293 293 293 293 293 292 291 290 289 289 287 287 285 284 283 283
317 315 314 314 311 310 308 307 306 304 303 301 299 299 298 297 296 296 295 295 295 295 295 294 294 293 293 292 292 291 291 291 290 291 290 289 289 288 287 286 284 283 282 280
317 314 312 312 309 308 307 305 303 301 300 300 299 297 297 296 296 295 295 295 295 294 294 294 293 293 292 291 290 289 289 289 290 290 289 288 287 286 286 285 284 282 281 280
314 312 311 309 307 306 305 302 300 300 299 298 297 296 296 296 295 295 295 294 294 294 294 294 293 292 290 289 288 287 287 287 288 287 287 287 286 285 285 284 283 283 282 281
310 309 307 306 306 303 300 300 299 298 297 296 296 295 295 294 294 294 294 294 294 293 293 292 291 291 290 288 288 287 286 286 286 286 286 286 285 284 284 283 283 283 282 281
306 306 306 304 301 301 299 297 296 296 296 295 294 294 293 294 294 294 294 294 293 291 291 291 290 289 289 288 287 286 285 286 285 285 286 284 284 284 283 283 283 283 282 281
304 303 302 300 299 297 296 296 296 295 294 293 293 294 293 293 293 293 293 293 292 291 291 290 289 289 288 286 286 286 286 285 284 285 284 284 284 283 283 282 282 282 282 280
302 302 300 297 296 296 296 295 294 293 293 293 293 291 291 291 291 291 291 291 291 291 291 290 289 288 287 286 286 285 285 285 284 284 284 284 284 283 283 282 282 281 281 279
299 297 296 296 295 295 295 294 294 293 293 292 291 291 291 290 290 290 290 290 291 290 290 290 289 288 287 285 285 284 284 284 284 284 284 284 283 283 282 282 282 281 280 280
296 295 295 295 295 295 294 293 293 292 291 291 291 291 291 290 290 290 290 290 290 290 291 289 288 288 286 284 283 284 283 283 284 284 284 284 283 283 282 282 282 281 280 279
294 294 294 294 292 291 292 291 292 291 291 290 290 291 290 290 290 290 290 291 290 291 290 289 288 287 285 284 283 283 283 283 283 284 284 284 283 283 283 282 281 281 280 280
291 291 291 291 291 292 292 292 292 291 291 290 290 290 290 290 290 290 290 290 290 290 290 289 287 286 286 285 284 284 283 283 283 284 284 284 283 283 283 282 282 281 280 279
292 292 291 291 292 292 292 291 291 291 291 290 290 289 289 289 289 289 289 290 290 290 289 289 287 286 286 285 284 284 284 283 283 283 283 283 283 283 283 283 282 281 280 279
290 291 291 291 292 292 292 291 291 291 291 290 289 289 289 289 289 289 290 290 289 289 289 288 287 287 285 285 284 284 284 284 283 283 283 283 283 282 283 282 282 281 280 279
291 292 291 292 292 292 291 292 292 291 291 290 290 290 289 289 289 289 290 289 289 289 289 288 287 287 286 285 284 284 284 284 283 283 283 283 283 283 282 282 282 281 280 280
291 291 291 292 293 293 293 293 292 292 291 290 290 289 289 288 288 289 289 288 288 289 289 288 287 287 286 284 284 284 283 283 282 283 282 283 283 283 283 282 281 281 281 280
292 293 293 293 293 293 293 293 292 291 290 289 289 289 288 288 288 288 288 288 288 288 288 288 287 287 286 285 284 284 283 282 282 282 282 282 282 282 282 282 282 281 281 281
293 293 293 293 293 293 293 292 291 290 288 288 288 288 288 287 288 289 289 288 288 288 288 288 288 287 286 285 284 284 283 282 282 281 282 282 282 282 282 282 282 281 281 280

GFSNGP_850_thetae_024.txt.gz
Theta_e
319 316 316 316 316 316 317 317 318 318 317 317 317 317 316 315 314 314 314 314 311 310 308 306 305 304 304 304 302 301 300 299 299 298 298 297 296 295 294 293 291 291 290 290
319 316 315 315 315 316 316 316 316 317 317 317 316 315 315 315 314 313 313 311 309 307 306 305 304 303 303 303 301 300 300 299 298 298 297 296 295 294 293 291 290 290 290 289
322 318 318 323 320 316 316 316 316 318 317 315 316 315 314 313 313 312 310 308 307 306 306 304 303 302 301 302 301 300 299 299 298 298 297 295 294 294 291 291 290 290 289 289
320 317 321 318 315 316 316 316 315 315 316 315 314 313 312 311 310 309 308 307 307 305 303 302 301 300 301 301 301 301 300 299 298 297 296 295 294 293 291 290 290 289 289 289
323 320 317 316 317 316 315 315 316 317 315 314 313 311 311 310 307 307 306 305 304 303 302 302 301 300 299 298 298 298 298 298 298 296 295 295 294 292 291 290 290 290 289 289
317 318 318 318 316 314 314 317 316 315 314 313 310 311 310 308 306 305 304 303 302 302 301 301 300 299 298 297 296 297 297 297 297 296 295 294 293 292 290 290 290 289 288 288
316 315 317 315 315 314 316 318 315 313 312 310 309 308 307 306 305 303 302 301 300 299 299 299 298 297 296 295 295 295 295 295 296 296 295 295 294 291 290 290 289 288 288 287
315 317 316 315 314 315 316 315 313 311 310 308 307 307 305 303 302 301 300 299 298 297 297 296 296 295 295 294 294 294 294 293 293 293 294 292 291 290 290 289 288 288 287 285
318 318 315 315 315 314 314 312 310 309 308 307 306 304 302 301 300 298 298 297 296 296 295 295 295 295 294 294 293 293 293 292 292 292 292 292 292 290 289 288 288 287 285 283
319 316 315 315 314 312 310 309 308 308 306 304 303 301 301 299 298 298 297 296 296 295 295 295 295 294 294 294 293 292 292 291 290 291 290 291 290 289 288 288 287 285 284 283
318 316 315 314 313 311 310 308 307 305 303 302 301 300 299 298 297 297 296 296 295 295 295 294 294 294 294 293 292 291 290 289 289 290 290 290 289 288 287 286 286 285 283 282
318 316 315 314 311 310 308 307 305 302 301 301 299 298 297 297 296 296 295 294 294 294 294 294 294 294 292 291 291 289 289 288 287 288 288 288 287 286 286 285 285 284 283 282
315 313 313 311 309 308 306 304 301 301 300 298 297 297 296 295 294 294 294 294 294 294 294 294 292 292 291 291 290 289 288 287 286 285 286 286 286 285 285 284 284 283 283 282
312 310 309 308 307 306 302 302 300 298 297 297 296 295 294 294 294 294 293 293 294 294 294 292 291 291 290 290 289 288 287 286 286 285 285 285 285 284 284 283 283 283 283 282
310 310 309 307 304 302 301 298 297 297 296 295 294 294 294 294 293 292 292 292 292 292 292 291 291 290 290 288 288 287 287 286 285 285 285 285 284 284 283 283 283 283 282 282
307 305 304 303 301 299 298 297 297 296 295 294 294 293 292 291 291 291 291 291 290 290 290 290 290 290 289 288 287 286 287 287 285 284 284 284 284 283 283 283 283 282 282 282
305 304 302 300 298 297 297 297 296 295 293 292 292 291 291 291 290 290 290 291 290 289 290 290 290 289 287 287 287 286 286 285 285 284 284 284 284 283 283 282 282 282 282 281
302 300 298 297 297 296 296 296 294 293 292 291 291 291 290 290 290 290 290 290 290 291 290 290 290 289 288 287 286 285 284 284 284 284 284 284 284 283 283 283 283 282 282 281
297 297 296 296 296 295 294 292 291 291 291 291 291 291 290 290 290 289 289 291 290 290 290 290 290 289 288 287 284 284 284 283 283 283 284 284 284 284 283 283 283 282 281 281
295 295 295 293 292 291 291 291 291 291 291 291 291 291 290 290 289 288 289 289 289 290 290 290 290 289 288 286 284 283 283 283 283 283 284 284 284 284 284 283 283 282 282 281
293 292 292 291 290 290 291 291 291 291 291 291 291 290 290 289 288 289 289 289 289 290 290 290 289 288 287 286 285 285 284 284 283 284 284 284 284 284 284 283 283 283 282 282
293 292 291 290 291 291 291 291 292 291 291 291 291 291 290 289 289 289 289 289 289 290 289 289 289 288 287 286 286 285 284 284 284 283 283 283 284 284 283 283 282 282 282 281
292 291 291 291 291 291 291 291 292 291 292 292 291 291 290 290 289 288 289 289 289 289 289 289 288 288 287 286 286 285 284 284 284 284 283 283 284 283 283 283 282 281 281 280
292 292 292 292 291 291 292 292 292 293 293 292 292 291 290 290 289 288 288 288 288 288 288 289 288 288 287 287 286 286 284 284 284 284 284 283 283 283 283 283 283 282 281 280
291 291 292 292 293 293 293 293 293 293 293 292 290 290 289 289 288 288 288 288 288 288 288 288 288 288 287 287 287 286 285 284 283 283 282 282 282 282 282 283 283 282 282 281
292 292 292 292 292 292 292 293 293 293 293 291 290 289 288 287 287 287 287 287 288 288 287 287 287 288 287 287 287 286 285 285 284 283 282 282 281 281 281 282 282 282 282 282
291 292 292 293 293 292 292 293 293 293 292 290 289 288 287 287 287 287 287 287 287 287 288 288 289 288 287 287 287 286 285 284 284 283 282 282 281 282 281 281 281 281 281 281

GFSNGP_850_thetae_027.txt.gz
Theta_e
318 315 315 314 314 314 315 314 313 313 316 316 314 314 314 313 313 313 312 311 310 308 306 305 305 304 303 303 302 302 301 301 300 299 299 298 298 297 295 293 293 291 290 290
315 316 314 314 313 315 315 315 315 315 316 315 314 313 312 312 312 310 309 308 307 307 306 305 304 303 302 300 301 301 301 301 300 299 298 298 297 296 294 293 291 290 290 289
313 314 313 312 315 316 315 315 315 314 314 313 311 311 311 310 310 308 306 306 306 305 304 303 302 301 301 300 299 298 297 297 299 298 298 298 297 295 294 292 291 290 289 289
306 307 306 316 314 314 315 314 313 314 313 312 311 311 310 309 308 305 305 304 303 303 303 302 302 301 300 298 297 297 296 296 295 296 296 296 295 295 294 291 290 290 290 289
311 311 311 314 315 314 313 314 315 314 313 311 309 309 309 308 305 305 304 304 302 300 299 299 299 298 297 296 296 295 295 294 294 294 294 294 294 294 292 291 290 290 289 289
304 309 306 312 314 314 314 310 314 313 311 309 309 304 305 305 305 304 302 301 298 297 297 296 296 296 295 295 295 294 294 293 293 293 292 293 294 294 293 290 290 290 289 288
303 305 308 312 314 313 312 310 313 312 311 309 307 307 306 306 302 301 300 298 297 297 296 296 295 295 295 295 294 294 294 293 293 292 291 291 292 291 290 290 289 289 288 287
310 312 309 313 314 311 311 314 312 310 309 308 307 306 305 302 301 299 298 297 297 296 296 295 295 295 295 294 294 294 293 293 291 291 290 291 291 291 290 289 288 288 287 286
309 308 311 314 314 314 314 312 310 310 308 307 306 303 302 300 299 298 297 297 296 295 295 295 295 294 294 294 294 293 293 291 290 289 289 290 291 290 288 288 288 287 286 285
312 314 315 315 314 314 312 311 309 307 306 304 303 301 300 298 297 296 296 296 295 294 294 294 294 294 294 293 293 292 291 290 289 288 289 290 290 289 288 287 287 286 285 283
310 314 314 313 313 312 310 308 306 306 303 301 301 299 297 297 296 295 294 294 293 294 294 294 294 294 294 292 291 291 290 289 288 288 287 288 288 287 286 285 285 284 284 283
307 314 314 313 312 311 309 306 305 303 301 300 298 297 296 295 294 294 294 293 293 292 293 293 294 294 292 291 291 290 290 289 288 286 285 286 286 285 285 285 284 283 283 283
314 314 314 313 310 309 307 305 302 301 299 297 297 296 295 294 294 293 291 291 291 291 291 292 292 291 291 290 290 289 289 288 286 285 285 285 285 285 284 284 283 283 283 282
313 313 310 309 307 306 304 302 299 297 297 296 296 295 294 293 291 291 290 290 290 291 290 290 290 290 290 290 289 288 287 286 286 285 284 284 284 284 283 283 283 283 282 282
311 311 310 308 306 304 301 298 297 297 296 296 294 293 291 291 290 290 290 290 290 290 290 290 290 290 290 290 287 287 287 286 286 285 284 284 284 284 283 283 283 282 282 282
309 308 306 305 302 298 297 297 297 296 296 294 291 291 291 291 290 290 290 290 290 290 290 289 290 289 289 289 287 287 286 286 286 285 284 284 284 283 283 283 282 282 282 282
305 304 302 300 298 297 297 296 296 296 294 291 291 291 291 290 290 290 290 290 288 287 289 289 289 290 290 289 287 286 285 285 284 284 284 284 284 283 283 282 282 282 282 282
304 302 299 297 297 296 296 296 295 291 291 291 291 291 291 291 290 290 290 289 289 288 288 289 289 289 289 289 288 287 285 284 283 283 283 283 284 283 283 283 283 282 282 281
298 298 296 296 296 295 293 291 291 291 291 291 291 291 291 290 290 290 289 288 288 288 289 289 290 289 289 288 287 286 284 283 283 283 283 283 284 284 283 283 283 282 282 282
296 296 295 294 292 291 290 290 291 290 291 291 291 290 291 291 290 290 288 288 288 289 289 289 289 289 289 288 286 285 285 284 283 283 283 283 283 283 284 284 283 283 282 282
295 294 293 292 291 290 290 290 290 291 291 291 291 291 291 291 290 289 289 289 288 289 289 290 289 288 288 288 286 286 285 285 284 283 283 283 284 283 283 283 284 283 282 282
293 292 291 291 291 291 291 291 291 291 291 291 291 292 291 291 290 290 289 289 288 288 288 289 288 288 287 287 286 285 285 285 284 284 283 283 283 283 283 283 283 282 282 282
291 291 291 291 291 291 291 291 291 292 292 292 292 292 292 290 290 289 289 289 288 287 287 287 287 288 287 287 287 286 286 286 285 284 284 283 283 283 283 283 283 283 282 281
291 291 291 291 291 291 291 291 291 292 293 293 293 293 292 290 290 288 289 288 287 287 287 287 287 287 287 287 287 287 287 286 286 284 284 283 283 283 282 283 283 283 283 282
291 291 291 291 291 291 291 291 292 293 293 293 293 293 291 290 288 288 287 287 286 287 287 287 287 287 287 287 287 287 287 287 286 285 284 283 283 282 282 282 282 282 282 282
291 291 291 291 291 291 291 292 293 293 293 293 293 292 291 289 287 287 287 286 286 286 287 287 287 287 287 287 287 287 287 287 286 285 285 284 283 282 282 281 281 281 281 282
292 292 292 292 291 290 291 291 291 292 291 292 292 291 289 287 286 286 286 286 286 286 286 286 286 287 287 287 287 287 287 287 287 285 284 284 283 282 282 281 281 281 280 280

GFSNGP_850_thetae_030.txt.gz
Theta_e
316 313 314 313 313 312 313 313 313 312 313 314 312 311 312 312 311 310 309 307 307 306 305 305 304 302 302 301 300 300 299 298 298 297 297 296 297 297 297 297 295 293 291 290
312 314 313 312 311 313 313 314 314 313 315 312 311 312 311 311 310 309 307 305 304 304 303 303 302 302 301 301 300 300 298 297 296 296 295 293 293 294 294 294 293 291 290 290
307 310 310 309 314 315 314 312 313 312 312 310 310 310 310 309 308 305 304 304 303 303 301 301 301 300 298 297 296 296 295 295 294 294 293 293 292 292 292 294 294 290 290 289
303 302 302 310 312 313 314 314 312 312 311 310 310 310 309 307 304 304 304 303 301 299 298 298 297 296 296 295 295 295 294 294 293 293 293 293 292 292 293 294 293 290 290 289
302 308 306 311 314 313 312 314 313 312 310 309 309 308 308 305 304 304 302 299 297 297 297 296 296 295 295 295 295 294 294 294 294 293 292 291 290 290 292 292 291 290 290 289
305 302 302 307 313 313 312 310 313 312 310 309 308 302 303 305 306 301 299 298 297 297 297 296 295 295 295 294 294 294 294 294 293 292 291 290 290 291 291 290 289 289 289 288
296 299 305 307 312 313 311 310 313 312 311 309 306 307 305 304 301 300 298 297 297 296 296 296 295 295 295 294 294 294 294 293 292 290 290 290 290 291 290 290 289 288 287 287
302 300 308 309 312 310 309 313 313 311 310 309 307 306 305 301 300 298 297 297 296 296 295 294 294 294 294 293 293 293 293 292 290 290 289 289 290 290 289 288 288 287 287 285
309 309 308 312 313 313 313 314 311 311 310 307 306 304 301 299 298 297 297 296 295 294 293 293 293 294 294 294 293 293 291 291 290 289 288 289 289 290 288 287 287 286 285 284
309 311 311 313 314 314 314 313 311 309 307 306 303 300 299 298 297 297 296 294 293 292 291 291 292 292 293 293 293 291 291 290 290 288 287 287 288 288 287 286 285 284 284 283
308 312 313 313 313 313 312 311 309 306 305 302 300 298 298 297 296 295 294 293 291 290 290 290 290 291 292 291 290 290 290 289 289 288 286 285 286 286 285 285 284 284 283 283
308 312 313 313 313 312 311 308 307 302 301 299 299 297 297 296 295 294 293 291 290 290 290 290 290 290 290 291 290 290 289 288 288 286 285 285 285 285 284 284 283 283 283 282
314 314 314 314 313 310 308 306 302 301 300 298 297 296 296 295 294 291 290 290 290 290 290 290 290 290 290 290 290 290 288 287 286 286 285 284 284 283 283 283 283 283 282 282
313 314 312 312 310 308 306 302 300 298 297 297 296 296 294 293 291 290 290 290 290 290 290 290 290 290 290 289 289 288 287 287 286 286 285 284 283 283 283 282 282 282 282 282
313 312 312 310 307 305 303 298 297 297 297 296 295 293 291 290 290 290 290 290 290 290 289 288 288 288 289 289 289 287 287 286 286 285 285 284 283 283 283 282 282 282 282 281
311 310 308 306 304 298 298 297 297 297 296 296 294 291 290 291 290 290 290 290 290 289 289 288 287 288 289 289 289 288 287 286 285 285 284 283 283 283 283 282 282 282 282 282
308 306 304 299 298 298 297 297 297 296 295 292 290 290 290 291 290 290 290 290 289 289 289 289 288 289 289 289 288 288 286 286 285 284 284 283 283 283 283 283 282 282 282 282
305 301 299 299 298 299 298 296 295 292 291 290 290 291 291 290 290 290 290 290 289 288 288 289 289 289 288 288 288 288 287 286 284 284 282 282 283 283 283 283 283 283 282 282
300 300 298 298 296 295 293 291 291 290 290 290 291 291 290 290 291 291 290 289 288 289 288 288 288 289 289 288 288 288 287 285 284 283 282 282 283 283 283 283 283 283 283 282
295 295 295 293 292 292 291 290 290 290 290 291 291 291 291 291 291 291 290 290 289 289 288 288 288 288 289 288 287 288 286 286 285 284 283 283 283 283 283 283 283 283 283 283
295 294 293 292 291 290 290 290 290 290 291 291 291 291 291 291 291 291 291 290 290 289 288 287 287 287 287 287 287 287 287 286 285 285 284 284 283 283 283 283 283 283 283 282
293 292 291 291 290 290 291 291 291 291 291 292 292 292 292 292 292 291 291 290 289 288 288 287 287 286 287 287 287 287 286 286 285 285 285 285 284 283 283 283 282 282 282 282
292 291 291 290 291 291 290 291 291 291 292 292 292 293 293 292 292 291 291 290 288 287 287 286 286 286 286 287 287 287 287 286 286 286 286 286 284 283 283 283 283 282 282 283
291 291 291 291 291 291 291 291 291 291 291 292 292 293 292 292 292 291 290 289 287 286 286 286 286 286 286 286 286 287 287 287 287 287 287 286 285 284 283 283 282 282 282 282
291 291 291 291 291 291 291 290 290 290 291 290 291 291 292 292 291 290 289 287 287 286 286 286 286 286 287 287 287 287 287 287 287 287 287 286 286 285 284 283 282 282 281 282
292 292 292 292 292 292 291 291 290 290 290 290 290 289 290 291 290 288 287 286 286 285 285 285 285 285 285 285 286 286 287 287 287 287 287 287 286 285 284 283 282 282 281 281
293 293 292 292 292 292 292 292 291 290 290 289 289 289 289 290 288 286 286 286 284 284 284 284 284 284 283 284 284 285 285 285 286 286 287 286 286 285 284 283 282 282 281 281

GFSNGP_850_thetae_033.txt.gz
Theta_e
313 311 313 312 312 312 313 312 312 311 311 311 311 309 311 311 310 310 308 307 305 304 303 303 303 302 301 300 300 299 297 296 295 294 294 294 293 293 292 292 292 294 294 291
312 312 311 312 310 309 309 310 312 312 314 311 311 311 311 310 309 308 306 303 303 303 303 302 301 300 299 297 296 295 294 294 294 294 294 294 293 293 291 292 294 293 291 290
305 308 306 305 308 312 313 312 311 313 311 309 309 310 310 309 308 305 304 303 304 302 300 299 297 296 296 295 294 294 294 294 294 294 293 293 293 291 290 290 293 292 291 289
302 302 302 307 309 311 312 313 312 311 309 309 310 310 310 309 306 304 303 304 300 298 297 296 296 296 295 294 294 294 294 294 293 293 293 293 291 290 290 290 291 292 290 289
302 305 305 309 312 313 312 311 311 310 308 309 309 309 308 307 304 304 304 300 297 297 297 296 296 296 295 295 294 294 294 293 293 293 292 291 290 290 290 291 290 290 289 289
304 300 301 305 311 312 311 311 312 310 308 308 308 303 304 307 305 304 299 297 297 297 296 296 295 295 294 294 293 293 293 293 293 292 290 289 289 289 290 290 290 289 288 287
295 299 304 305 311 312 312 307 312 312 311 309 305 307 307 305 304 300 297 297 297 296 296 295 294 293 292 292 292 293 293 293 291 290 290 289 289 289 289 290 289 288 287 286
300 301 309 307 310 310 309 310 313 313 312 311 309 307 306 301 299 297 297 296 296 296 294 292 291 291 291 292 292 292 292 291 291 290 289 288 289 289 289 288 287 287 286 285
308 308 308 310 311 313 312 312 313 313 312 311 308 306 302 300 298 297 297 296 295 293 292 291 290 290 290 291 291 291 290 290 289 289 289 287 288 288 288 287 286 285 284 283
308 309 309 311 311 312 312 313 313 312 311 309 306 304 300 298 297 296 296 294 293 292 290 290 290 290 290 290 290 290 289 289 289 288 288 286 286 286 286 285 285 284 283 283
306 308 313 313 312 313 313 313 312 310 308 306 305 300 298 297 296 295 294 293 291 290 290 290 290 290 290 290 290 290 290 289 288 287 286 285 285 285 285 284 284 283 283 283
308 311 313 312 313 314 313 311 309 307 305 303 300 299 297 296 295 294 293 291 290 290 290 290 289 289 289 289 289 289 289 288 287 286 285 284 284 284 284 283 283 283 283 282
313 314 313 313 313 312 311 309 307 306 302 298 298 296 296 294 293 292 290 290 290 290 290 289 289 289 289 289 288 288 288 287 287 286 285 284 284 283 283 282 282 282 282 282
312 312 312 313 312 310 309 307 304 301 299 299 296 295 294 292 291 290 290 290 290 290 290 289 289 289 288 288 288 288 287 287 286 286 285 285 284 283 282 282 282 282 282 282
312 312 312 312 310 308 306 300 299 298 297 295 295 294 292 290 290 290 290 290 290 290 290 289 289 289 288 288 288 288 288 287 286 285 285 284 284 283 283 283 282 282 282 282
311 310 311 309 303 301 301 299 298 296 296 295 294 291 290 290 290 290 290 290 290 290 290 289 289 288 288 288 288 288 288 288 286 285 284 283 283 283 283 283 283 282 282 282
309 304 302 301 299 297 299 297 296 297 295 292 291 290 290 290 290 290 290 290 290 289 289 288 288 288 288 288 288 287 287 287 286 285 284 283 283 283 283 284 283 282 282 282
305 300 298 298 299 298 297 298 296 292 291 290 290 290 290 290 290 290 290 290 290 290 289 289 288 288 288 288 287 287 287 286 287 284 283 283 283 282 282 283 283 282 282 282
300 299 300 298 296 295 292 292 291 290 290 290 290 290 290 290 290 290 291 290 290 290 290 289 288 287 287 288 287 287 287 287 286 285 284 283 282 282 282 283 283 282 282 284
297 294 293 292 293 292 291 290 290 290 290 290 290 291 291 291 291 291 291 291 291 290 290 289 288 287 286 286 286 287 286 286 286 286 285 284 284 283 283 282 283 283 283 283
293 293 292 291 291 290 290 290 291 291 291 291 291 291 291 292 291 291 292 292 291 290 290 288 287 287 286 286 286 286 287 286 285 285 285 285 285 285 284 283 282 282 282 282
292 291 291 290 290 290 290 290 291 291 290 291 291 291 292 292 292 293 292 292 292 291 289 287 287 286 286 286 286 286 286 286 286 286 286 286 286 286 285 284 283 283 282 282
291 291 290 291 291 290 290 290 291 291 290 290 290 290 291 291 292 291 291 292 291 290 288 287 286 286 286 286 286 286 286 286 287 287 287 287 287 287 286 286 284 283 283 282
291 290 291 291 291 291 291 291 291 291 291 291 290 290 290 290 289 289 291 291 289 288 287 286 286 285 285 285 285 286 286 286 287 287 287 287 287 287 286 286 285 283 283 282
292 292 292 292 292 292 292 292 292 292 292 291 291 290 289 289 289 289 289 290 288 286 286 286 285 284 284 284 284 284 284 285 285 286 286 286 286 286 286 286 285 284 283 282
293 293 293 292 292 292 292 292 291 291 290 289 290 290 289 288 288 289 289 288 286 286 285 286 285 284 284 284 283 283 283 283 283 284 285 285 285 286 286 286 285 284 283 282
290 290 289 289 290 289 288 287 287 286 286 287 288 288 288 288 288 288 287 286 286 285 285 284 283 283 283 283 283 283 283 283 284 283 283 284 286 286 286 285 284 284 283 282

GFSNGP_850_thetae_036.txt.gz
Theta_e
311 311 311 311 311 312 312 310 311 310 309 309 311 309 309 310 310 310 309 308 306 304 304 303 303 302 301 300 298 296 294 293 294 294 294 293 292 292 292 291 290 291 292 292
313 310 310 311 309 308 309 309 309 310 310 309 310 311 310 310 310 309 308 306 303 303 303 301 301 300 297 296 294 294 293 294 294 294 293 292 292 292 291 290 290 290 291 291
308 306 304 305 307 308 309 309 308 311 309 308 309 310 310 310 309 309 306 303 303 303 301 299 297 297 296 295 294 294 293 294 294 293 293 292 292 290 290 289 290 290 290 290
301 300 301 306 308 308 309 310 308 310 309 309 310 310 311 310 309 307 304 303 303 300 298 297 296 296 295 295 294 293 293 293 292 292 292 292 290 290 289 289 290 290 290 289
301 303 304 308 309 311 311 310 310 309 308 308 310 309 309 309 308 305 303 304 300 297 297 296 296 295 294 293 292 291 292 292 292 292 292 291 290 289 289 289 289 289 289 288
299 300 300 305 309 311 310 310 309 310 307 307 308 305 307 310 308 304 304 300 297 297 296 296 295 294 292 291 290 291 291 291 291 291 290 290 289 288 289 289 289 289 288 287
293 298 303 303 309 311 312 308 310 311 310 308 306 309 310 310 307 305 301 298 297 296 295 295 293 291 290 290 290 290 290 290 290 290 290 289 288 288 289 289 289 288 287 286
300 298 308 306 310 310 309 309 311 312 312 311 309 309 307 306 305 300 298 297 296 295 294 292 291 290 290 290 290 290 290 289 289 289 289 288 288 288 287 287 287 287 286 285
306 307 307 308 309 312 311 311 312 312 312 311 310 308 306 302 301 299 297 296 295 294 292 291 290 290 290 290 289 289 289 289 289 288 288 288 287 286 286 286 286 285 284 284
307 308 307 310 310 310 311 312 311 312 313 312 310 307 304 303 298 297 296 295 294 292 291 290 290 290 289 289 289 289 289 289 289 288 287 287 286 285 285 284 284 284 283 283
305 307 309 311 312 312 311 311 312 312 312 311 308 305 303 299 296 296 295 294 292 290 290 290 289 289 289 289 289 289 288 288 288 287 287 286 285 284 284 284 283 283 283 283
306 309 310 311 312 313 313 313 312 312 310 307 305 301 298 298 296 294 293 291 290 290 290 290 289 289 289 289 288 288 287 288 287 287 286 285 284 283 283 283 282 282 282 282
310 312 313 313 313 313 312 311 310 308 306 304 298 299 297 296 293 292 291 290 290 290 290 289 289 289 289 288 288 288 288 287 287 286 286 285 285 284 283 282 282 282 282 282
312 311 311 312 312 312 310 308 305 300 299 300 298 294 296 294 291 290 290 290 290 290 290 290 290 289 289 288 287 288 288 287 288 287 286 285 285 284 283 282 282 282 282 282
311 310 310 310 309 307 306 302 298 299 299 295 295 297 294 291 290 290 290 290 290 290 290 290 289 289 289 288 288 288 287 287 288 288 286 285 284 284 283 282 282 282 282 281
309 309 308 306 300 298 298 300 299 295 295 297 297 293 291 290 290 290 290 290 290 290 290 290 290 289 288 288 288 287 287 287 287 287 286 285 284 283 283 283 283 282 283 282
306 299 299 298 299 299 298 297 297 297 298 295 291 290 290 290 290 290 290 290 290 290 290 290 290 289 288 287 287 287 287 287 287 287 286 285 284 283 283 282 282 283 283 282
301 298 298 299 299 298 298 297 295 293 291 290 290 290 290 290 290 290 290 290 290 290 290 290 290 289 289 287 286 287 287 286 286 286 286 285 284 283 282 282 282 282 282 282
299 299 297 295 294 294 294 292 291 290 290 290 290 290 290 290 291 291 291 291 290 291 291 291 290 289 288 287 286 286 286 286 286 286 286 285 284 284 283 282 282 282 283 282
294 294 295 294 293 291 291 290 290 290 290 290 290 290 290 291 291 292 292 292 291 291 291 291 291 290 288 287 286 285 285 285 285 286 285 285 285 285 284 284 284 283 282 282
292 292 291 291 290 290 290 290 290 290 290 290 290 290 290 290 290 290 291 291 290 292 292 291 291 290 287 286 286 285 285 285 285 286 286 286 285 285 285 285 285 285 284 283
292 291 290 290 290 290 290 290 291 291 290 290 290 290 291 290 290 289 289 289 290 291 291 291 290 288 287 286 285 285 285 285 285 286 286 286 287 287 286 286 286 286 286 285
291 291 291 291 291 291 291 291 291 291 291 291 291 291 291 291 290 289 289 289 289 289 290 289 288 287 286 285 283 284 284 284 285 285 285 286 286 286 286 286 286 286 286 285
292 292 292 292 292 292 292 291 291 291 291 291 291 290 290 291 290 290 289 288 288 288 289 288 286 286 285 285 284 283 283 283 283 283 284 284 284 285 285 285 286 286 286 285
292 292 292 292 291 291 291 290 290 289 287 286 286 286 286 287 288 288 288 287 288 288 287 286 286 285 285 284 283 283 283 283 283 283 283 283 283 283 284 284 285 286 285 285
292 290 289 288 287 286 285 284 284 284 284 284 284 284 285 285 286 287 286 286 287 286 286 286 285 285 284 283 282 282 282 282 282 283 283 283 283 283 283 285 285 285 285 284
289 288 287 285 284 284 283 282 282 282 282 282 281 283 284 285 286 286 286 286 286 285 285 285 284 283 282 281 281 281 281 281 281 282 282 283 283 283 284 284 284 284 284 284

GFSNGP_850_thetae_039.txt.gz
Theta_e
312 311 311 311 312 314 314 313 317 313 313 313 312 314 312 310 310 309 309 309 307 306 305 304 303 304 301 299 297 296 294 293 293 294 293 293 292 291 291 290 290 290 290 292
313 311 310 312 311 310 312 312 312 311 313 310 310 311 310 309 308 308 309 308 307 304 303 302 301 300 297 297 297 295 293 293 294 294 293 292 291 291 290 290 290 289 290 290
314 307 306 311 311 312 310 310 313 314 314 311 311 311 311 309 309 310 309 307 304 303 303 300 298 297 297 297 295 293 292 293 293 292 291 291 291 290 290 289 289 288 289 289
309 304 309 310 309 309 310 310 310 311 311 311 311 310 311 310 311 310 308 305 303 303 300 297 297 297 296 295 293 292 291 291 291 291 291 290 290 290 290 289 289 289 289 289
312 309 307 308 307 311 312 313 310 311 310 309 309 310 310 311 311 310 307 304 303 301 298 297 297 296 295 293 291 291 290 290 290 290 290 290 290 290 289 289 288 289 289 288
306 309 309 308 307 310 310 316 310 311 309 308 309 314 314 311 310 308 304 303 302 297 297 296 296 295 292 291 290 290 290 290 290 289 289 289 289 289 289 288 288 289 288 287
302 311 309 306 307 310 313 313 308 311 310 308 311 312 311 311 310 307 304 302 299 298 297 296 294 292 290 290 290 290 290 289 289 289 289 288 288 288 288 287 287 288 287 286
303 309 313 306 310 314 313 309 310 311 311 311 311 309 310 310 308 305 300 301 298 296 296 294 292 290 290 290 290 289 289 289 289 289 288 288 287 287 287 286 286 286 286 285
310 313 307 307 310 311 311 310 310 311 311 311 310 309 308 306 305 300 304 297 298 297 294 292 290 290 290 289 289 289 289 289 289 288 288 288 287 287 286 286 285 285 285 284
309 309 307 308 310 310 310 310 311 311 312 311 310 307 305 300 300 299 296 298 296 294 292 290 290 290 289 289 289 289 289 289 288 287 287 287 286 286 285 284 284 284 284 283
308 308 309 309 310 311 311 312 311 311 311 311 309 306 303 301 297 298 297 296 293 291 290 290 290 290 289 289 289 289 289 288 287 287 287 287 286 285 285 284 283 283 283 283
312 308 308 309 312 312 312 312 311 310 310 308 307 302 298 298 298 298 295 293 291 290 290 290 290 289 290 289 289 289 288 287 287 287 287 286 286 285 285 284 283 282 282 282
309 310 310 311 311 311 311 310 309 308 306 301 299 300 297 298 297 294 291 291 290 290 290 289 290 290 289 289 289 288 288 287 287 287 288 287 286 285 286 285 283 282 282 282
310 311 310 310 309 309 308 304 303 299 298 299 298 298 297 297 293 291 290 290 290 290 289 290 290 290 289 289 289 288 288 288 288 287 287 288 286 285 285 285 283 283 282 282
308 309 308 304 303 300 299 299 299 299 297 297 296 298 296 293 291 290 290 290 290 289 290 290 290 290 289 289 289 288 288 287 287 287 287 287 287 285 284 284 283 282 283 282
303 302 301 301 298 298 299 299 298 297 296 296 295 295 292 291 290 290 290 290 290 289 290 290 290 290 290 289 289 288 287 287 287 287 286 287 286 285 284 284 283 282 282 282
301 298 299 298 299 299 297 296 296 295 295 294 293 291 290 290 290 290 290 290 290 290 290 290 290 290 290 289 289 288 287 286 286 286 286 286 287 286 285 284 283 282 282 282
300 299 299 298 298 296 295 294 294 293 292 291 290 290 290 290 290 291 291 291 291 291 290 290 291 291 291 290 289 287 286 286 285 285 285 286 286 286 285 284 283 283 282 282
298 298 297 296 295 294 293 291 290 290 290 290 290 290 290 290 290 290 290 290 290 290 290 291 291 291 291 290 289 287 287 286 285 285 285 285 286 285 285 285 284 284 283 283
294 294 293 292 291 291 290 290 290 290 290 290 290 290 290 290 290 290 290 290 289 289 289 290 290 290 291 290 289 287 286 286 286 285 285 285 286 286 285 285 285 285 284 284
292 291 291 290 290 290 290 290 290 290 290 290 290 290 291 291 291 291 290 290 289 289 289 288 289 289 290 289 288 287 286 284 285 285 285 285 285 285 286 286 286 286 286 286
291 291 291 291 291 291 291 291 291 291 291 292 292 291 291 291 290 290 290 290 289 289 289 289 288 288 288 288 286 285 284 284 284 284 285 284 284 284 285 285 285 285 286 286
292 291 291 291 291 291 292 292 291 291 290 290 289 287 286 285 285 285 286 286 287 288 287 288 288 288 287 286 285 285 284 284 284 284 284 283 283 283 283 284 284 284 285 285
292 291 292 292 292 290 289 288 287 285 285 284 284 283 283 283 284 284 285 285 286 286 286 287 287 286 286 285 285 284 283 283 282 282 282 282 282 282 282 283 283 283 284 285
292 292 290 289 288 286 285 284 284 283 283 282 281 281 281 281 281 282 284 285 285 286 286 286 286 285 285 284 283 283 282 281 281 281 282 282 282 282 282 281 282 283 284 285
289 288 287 285 284 283 283 282 281 280 279 279 279 279 279 279 280 281 282 283 284 285 285 285 284 284 283 283 282 281 281 280 280 280 280 280 281 281 281 282 283 283 284 284
287 285 284 283 282 281 280 279 278 278 277 277 277 277 277 278 278 279 280 281 282 282 282 282 281 281 281 280 280 280 279 279 279 279 279 279 279 279 279 280 281 282 283 283

GFSNGP_850_thetae_042.txt.gz
Theta_e
317 316 316 317 318 319 318 318 319 316 315 314 315 316 317 318 318 317 315 313 312 311 309 308 305 303 304 301 299 297 297 296 296 296 295 295 295 294 294 293 293 292 292 292
319 316 315 316 316 316 318 318 318 317 317 317 315 315 316 316 316 315 314 313 311 310 308 306 303 302 300 299 297 297 296 295 295 296 295 294 294 293 293 293 292 292 291 291
318 313 314 319 317 317 316 317 317 318 317 316 315 315 315 315 315 315 314 312 310 308 305 303 301 299 298 297 297 295 294 294 294 293 293 293 293 292 292 292 292 290 290 289
319 311 324 314 312 313 316 317 316 315 315 314 315 315 315 315 315 314 312 311 309 305 302 301 299 298 299 297 295 293 293 293 293 293 293 293 292 292 292 292 290 290 289 289
324 315 314 313 311 311 313 314 315 315 315 314 314 314 315 313 313 313 312 310 307 303 302 298 299 298 297 296 293 292 293 293 293 293 292 292 292 291 291 289 289 289 288 288
315 328 329 314 313 313 314 316 314 315 315 315 314 318 313 313 312 312 310 307 303 300 299 297 297 299 296 294 293 293 293 292 292 292 292 291 291 290 290 290 289 288 288 288
318 324 317 312 310 313 315 314 313 314 315 314 315 315 313 313 311 309 307 302 299 297 298 298 299 295 293 293 292 292 290 290 292 291 291 291 290 290 289 289 289 287 287 287
315 323 322 310 313 317 316 315 312 314 314 314 314 311 310 311 308 304 300 297 297 300 298 299 295 293 292 292 292 290 289 290 291 291 291 290 290 289 289 289 288 287 286 286
317 317 313 311 314 314 313 313 313 313 313 312 313 310 308 307 303 300 298 300 299 297 296 295 292 290 290 292 290 289 289 289 291 291 290 289 289 289 288 288 287 286 286 285
314 314 313 312 312 312 312 312 312 312 312 312 312 310 306 302 299 298 298 297 298 297 294 292 290 290 290 290 289 289 289 290 290 290 290 289 289 288 288 287 287 286 285 285
314 313 312 311 311 312 313 313 312 312 311 311 311 306 300 298 298 297 298 297 296 293 291 290 290 290 289 289 289 289 289 290 290 290 289 289 289 288 287 287 286 286 285 284
316 311 312 313 312 311 312 312 311 308 306 305 304 299 298 297 298 297 296 294 294 294 290 290 290 289 290 289 289 289 289 289 290 289 289 288 288 288 287 286 285 285 284 283
313 312 312 311 307 308 306 305 303 302 301 300 298 298 298 296 295 294 293 293 291 290 290 290 289 290 290 290 290 289 289 289 289 289 288 288 288 288 287 287 286 285 284 283
310 310 311 304 303 302 302 300 299 297 298 298 297 296 295 294 293 294 292 290 290 290 290 289 290 290 290 290 290 289 289 289 288 288 288 287 287 287 287 286 286 286 285 284
303 304 303 301 300 298 297 298 298 297 297 296 296 295 294 294 293 291 290 290 290 290 290 290 290 290 290 290 290 289 289 289 288 288 287 287 287 287 287 286 285 285 285 284
302 301 300 299 297 298 298 298 298 297 296 295 295 294 293 291 290 290 290 290 290 290 290 290 290 290 290 290 290 290 290 289 288 287 287 287 287 286 286 286 286 285 285 284
299 298 298 298 298 298 298 297 297 297 296 295 293 291 290 290 290 290 290 290 290 290 290 290 290 291 290 290 290 290 290 289 288 287 286 286 286 286 286 286 286 286 285 284
300 299 299 298 297 297 296 295 293 292 291 290 290 290 290 290 290 290 290 290 290 290 290 289 289 290 291 291 291 291 290 288 288 287 286 286 285 285 285 286 286 286 285 284
298 298 297 297 296 294 292 291 290 290 290 290 290 290 290 290 290 290 290 290 290 290 290 290 289 289 289 290 290 290 290 288 287 287 286 286 286 285 285 285 286 286 285 285
295 294 292 291 291 290 290 290 290 291 291 290 290 290 290 291 291 291 291 290 290 290 289 290 289 289 289 289 288 289 288 287 286 285 285 285 285 285 285 285 285 286 286 285
291 291 291 290 290 290 290 290 290 290 290 291 291 291 291 290 288 286 285 285 286 287 288 287 287 288 289 288 288 288 287 286 285 285 285 285 285 285 285 285 285 285 285 285
291 291 291 291 291 290 291 291 291 291 289 288 286 285 284 284 283 283 284 285 285 285 285 285 286 286 287 287 287 286 285 285 285 285 285 285 285 284 284 284 284 284 284 285
292 291 291 291 292 291 290 288 286 285 284 284 283 282 282 281 282 283 282 283 283 284 285 285 286 286 286 286 286 285 285 284 284 283 283 282 282 282 282 283 283 284 284 284
292 292 292 291 289 287 287 285 284 283 283 281 280 280 280 279 279 280 280 280 281 281 283 285 285 285 285 285 284 284 284 283 282 282 281 281 281 281 281 281 281 282 283 283
291 290 288 287 286 285 284 283 282 281 280 279 279 278 278 277 277 278 277 278 279 280 282 283 283 283 283 282 282 282 281 281 280 280 280 280 280 280 280 280 281 281 281 282
288 287 286 285 283 283 281 280 279 278 278 277 277 276 276 276 276 276 276 277 278 278 279 279 280 280 279 280 279 279 279 279 279 279 279 279 278 279 279 279 279 280 280 281
286 285 283 282 281 280 279 278 278 277 277 276 275 275 274 274 274 274 275 276 276 276 276 276 277 277 277 277 277 277 277 277 277 277 277 277 277 277 277 278 278 278 278 279

GFSNGP_850_thetae_045.txt.gz
Theta_e
321 321 320 321 320 320 321 321 322 320 317 316 317 317 317 317 318 319 321 321 319 317 316 314 312 310 307 306 304 303 301 300 299 298 298 298 297 296 296 295 295 295 294 294
322 321 320 320 320 319 319 319 318 318 318 318 317 317 316 316 317 318 320 319 318 317 315 313 310 307 306 304 303 300 299 298 297 297 297 297 296 295 295 294 294 294 294 293
322 318 318 320 320 319 319 319 319 320 319 318 318 316 316 316 317 317 318 318 317 316 314 312 309 306 304 302 300 299 299 297 296 296 296 295 295 294 294 294 294 293 292 291
321 315 324 317 315 315 317 318 318 318 317 316 316 316 316 317 317 317 317 317 316 314 312 309 306 303 302 300 300 298 296 295 295 295 295 294 294 294 294 293 293 292 291 290
325 318 317 316 314 314 314 315 315 316 315 315 316 316 316 316 316 316 316 316 315 313 309 305 302 300 300 300 298 296 295 294 294 294 294 294 294 293 293 293 292 290 290 290
318 325 326 318 315 315 315 316 314 314 315 315 316 317 318 316 315 315 315 314 312 308 304 302 300 300 299 299 297 295 294 294 294 293 293 293 293 293 292 292 290 290 289 289
322 325 322 317 314 314 317 318 314 315 315 315 315 317 316 315 315 315 314 312 308 304 301 300 299 300 297 295 294 294 294 293 293 293 293 293 293 292 292 291 290 289 289 288
324 322 324 313 315 316 318 314 315 315 315 316 316 316 314 314 314 312 310 306 302 300 299 299 298 295 294 294 294 294 293 293 292 292 293 293 292 292 292 290 289 289 288 288
320 320 316 314 314 315 314 314 314 314 315 315 315 315 313 313 310 307 303 301 299 298 297 296 295 293 294 294 293 292 291 292 292 292 293 292 292 291 290 289 289 288 288 287
316 315 315 314 314 314 314 315 315 314 314 314 314 314 312 309 305 302 299 299 298 297 296 295 293 294 292 291 290 291 291 292 292 292 292 291 291 291 289 289 288 288 288 287
317 315 314 314 315 315 314 314 315 314 313 313 314 312 308 303 301 300 298 297 295 294 295 295 293 291 291 292 291 291 291 291 291 291 291 291 291 290 289 288 288 287 287 287
318 315 315 315 313 312 313 312 311 310 307 307 307 304 301 299 298 297 295 295 295 294 293 293 292 292 292 292 291 291 291 291 291 291 291 291 290 289 289 288 288 287 286 286
315 314 314 312 308 307 307 306 306 304 302 300 298 298 298 296 296 298 296 295 294 293 292 292 292 292 291 291 290 290 290 290 290 291 291 290 289 288 288 289 289 288 287 286
310 311 311 308 306 304 302 301 299 298 297 297 298 298 299 298 295 295 295 294 293 292 292 292 292 292 292 292 292 291 290 290 291 291 290 290 289 288 288 288 288 288 288 286
307 307 306 304 302 301 299 298 298 298 299 298 297 296 296 295 295 294 293 293 292 292 292 292 292 292 292 291 291 291 291 291 291 291 290 289 288 288 288 287 287 287 287 286
304 303 302 301 299 299 299 299 299 298 298 298 298 295 294 293 293 292 292 292 291 290 290 290 290 290 290 292 292 292 292 291 291 291 290 289 288 288 287 287 287 287 287 287
302 301 299 298 299 300 300 299 299 298 296 294 292 290 290 290 291 292 291 290 290 290 290 290 290 290 289 289 291 291 291 291 291 291 290 289 288 287 287 287 286 287 287 287
301 300 300 300 299 298 298 295 293 293 291 290 290 290 290 290 290 290 290 290 290 290 290 290 292 291 291 290 290 290 290 290 290 289 289 289 288 288 287 287 286 286 286 286
300 299 298 298 296 295 294 293 290 290 290 290 290 290 290 291 291 291 290 289 288 287 289 289 289 288 288 288 288 289 289 289 289 288 288 287 286 286 286 287 287 286 286 286
297 295 294 293 291 292 290 290 292 291 290 290 291 291 290 289 286 285 284 284 287 287 287 287 286 286 286 287 287 287 289 288 288 288 287 286 286 286 286 286 286 286 286 286
294 292 291 290 290 290 290 290 290 291 291 290 288 285 284 284 283 283 285 285 285 285 285 284 285 285 286 286 285 286 287 287 287 287 286 285 285 286 286 286 286 285 285 285
293 291 291 291 291 290 291 291 291 288 286 285 284 283 282 282 282 283 283 283 283 281 281 281 281 283 284 285 285 285 286 286 286 285 285 284 284 284 284 284 284 284 284 284
293 291 291 291 291 291 290 288 286 285 284 283 282 281 280 281 281 281 281 281 280 280 280 280 281 282 283 284 284 284 285 284 284 283 282 281 281 280 280 281 281 281 282 283
292 291 291 291 289 288 286 285 284 283 282 281 280 280 279 279 279 279 279 278 278 278 278 280 279 280 280 280 280 280 280 280 280 280 279 279 278 278 279 279 279 279 280 280
291 290 289 287 286 285 283 282 282 281 280 280 279 279 278 278 277 277 277 276 275 275 275 275 276 277 277 277 277 277 277 276 277 277 277 277 277 278 277 277 278 278 278 278
288 287 286 285 284 282 281 280 280 279 278 278 278 277 277 276 276 275 274 274 273 273 273 274 274 275 275 275 274 275 275 274 275 276 275 276 276 276 276 276 277 277 278 278
286 285 283 282 281 280 279 279 278 277 277 276 275 276 276 275 274 274 273 273 272 272 272 272 272 272 273 273 273 273 273 273 273 273 273 274 274 274 274 274 274 274 274 275

GFSNGP_850_thetae_048.txt.gz
Theta_e
319 320 321 322 322 321 320 322 324 323 320 319 319 319 318 318 318 318 319 321 322 323 322 320 319 316 315 312 308 307 304 303 301 299 299 299 298 298 297 296 295 295 295 294
324 322 321 321 320 319 320 320 319 320 320 320 319 318 317 317 316 316 317 320 321 321 320 318 317 314 312 308 306 305 302 300 299 299 297 298 298 297 295 295 295 294 294 294
327 320 318 320 320 319 319 319 320 320 321 320 319 317 317 316 316 317 317 317 320 319 319 317 315 312 309 307 305 301 300 300 298 297 297 296 295 295 295 295 294 294 294 294
328 316 322 318 317 316 316 316 316 316 317 316 317 317 316 316 317 317 317 317 318 318 317 315 312 309 307 304 301 300 300 297 296 295 295 295 295 295 294 294 294 293 293 292
327 322 319 318 316 316 316 316 316 316 316 316 316 315 317 316 315 314 315 317 317 317 315 312 309 306 303 301 301 299 296 295 295 294 294 294 294 294 294 294 293 293 292 290
322 327 324 320 316 315 315 318 315 314 315 315 315 320 318 316 315 314 315 316 315 314 310 307 304 301 300 299 298 297 295 295 295 294 294 294 294 293 293 293 292 292 291 290
324 325 325 318 316 315 318 322 316 315 315 316 317 318 316 315 315 315 315 314 312 307 304 302 301 300 299 299 296 295 295 294 292 293 293 293 293 293 293 292 292 292 291 289
328 322 323 315 314 318 319 315 315 315 315 315 316 316 316 314 315 314 310 306 304 302 301 300 298 296 295 294 295 295 294 293 292 292 292 293 293 293 292 292 292 291 289 289
324 324 317 314 315 315 315 315 315 315 315 314 315 315 315 314 312 308 303 301 300 299 297 296 297 294 294 294 294 294 293 290 290 291 292 292 292 292 292 291 291 289 289 288
320 317 316 315 316 316 316 315 315 315 315 315 315 315 314 311 305 301 300 299 298 298 298 296 295 295 296 294 293 291 290 290 290 291 292 292 291 292 291 291 290 289 289 288
318 316 316 316 316 315 315 315 315 313 311 312 314 312 307 303 301 299 298 298 296 297 299 297 295 294 293 293 292 291 291 291 291 291 291 291 291 291 291 290 290 289 289 288
323 317 317 314 311 312 311 310 309 307 304 305 305 304 302 300 299 298 299 299 298 296 295 294 293 293 292 292 292 292 291 291 290 290 290 290 291 291 290 289 289 289 289 289
317 315 314 309 308 308 307 306 304 303 302 301 301 301 300 299 299 299 297 295 295 294 293 293 293 292 292 292 292 292 292 291 291 290 290 291 291 291 290 290 289 288 288 288
312 313 311 310 306 304 303 301 300 299 299 298 298 299 298 296 295 296 296 295 294 293 293 293 293 293 293 293 292 292 292 292 292 291 291 291 291 290 289 289 288 288 288 287
309 309 308 305 303 301 300 300 299 299 298 298 297 297 296 296 295 294 294 293 293 292 292 291 291 290 290 290 290 291 292 292 292 292 292 291 291 290 290 289 288 288 288 288
306 305 304 303 301 300 300 299 299 299 298 297 296 294 294 293 292 293 293 292 290 290 290 290 290 289 290 291 291 291 291 291 291 292 291 291 291 290 289 289 288 288 287 287
304 303 301 301 300 300 300 299 297 296 295 292 290 290 290 290 290 290 290 290 290 290 288 287 288 291 291 291 291 290 289 289 289 289 289 290 290 289 289 289 288 288 287 287
303 301 301 300 300 299 296 295 293 292 290 290 290 290 290 290 290 290 289 287 286 285 286 289 289 288 287 285 286 286 286 286 287 288 288 288 288 288 288 287 286 286 286 287
301 300 299 299 297 296 295 292 291 291 290 290 290 290 290 288 286 285 285 284 285 286 287 286 285 285 283 285 286 286 286 285 286 286 288 287 287 287 287 286 286 286 286 286
298 297 296 295 294 292 291 292 292 291 290 290 289 287 286 285 284 284 283 284 285 285 285 284 281 280 280 282 282 283 284 285 285 285 287 287 287 287 286 286 286 286 286 287
295 293 291 290 290 290 290 290 290 290 288 286 286 286 285 283 283 282 283 283 283 283 281 280 279 280 281 281 281 282 284 284 285 285 286 287 286 285 285 284 284 284 284 284
292 291 291 291 290 290 290 290 288 286 286 285 285 284 282 281 281 281 281 281 281 279 279 278 279 279 279 279 279 280 281 282 282 283 283 283 283 282 281 281 280 281 281 281
291 291 291 291 291 290 288 287 286 286 285 283 282 281 280 280 280 279 280 279 278 277 276 277 276 277 277 277 276 277 278 278 279 279 279 279 279 278 278 278 277 277 278 279
292 292 291 291 289 287 286 286 284 283 282 281 281 280 279 279 279 278 278 277 276 275 275 275 275 275 275 275 275 275 275 274 275 275 276 276 275 276 275 275 276 276 277 277
291 290 289 288 287 286 284 284 282 282 281 280 280 279 278 278 277 276 276 275 274 274 273 273 272 273 273 274 273 273 273 272 273 273 273 273 274 273 273 274 274 275 275 276
289 288 287 286 285 283 283 281 280 280 279 279 278 277 277 276 276 275 275 274 273 273 272 271 271 271 270 270 270 270 270 271 271 271 271 271 271 271 272 272 272 273 273 273
287 285 284 284 283 281 280 279 279 278 277 277 276 276 276 276 275 274 273 273 272 272 271 271 270 269 269 268 268 267 268 268 269 268 269 270 270 270 270 270 270 270 271 271

GFSNGP_850_thetae_051.txt.gz
Theta_e
318 318 320 320 320 319 320 319 318 318 319 317 316 315 316 318 318 318 320 325 324 323 322 322 322 320 318 318 316 312 310 306 305 301 299 300 299 298 298 297 297 295 295 294
322 321 318 318 318 318 317 317 317 317 317 317 317 316 316 315 315 317 317 318 321 322 323 322 320 319 317 315 312 309 305 304 301 299 300 299 298 298 296 296 295 295 295 293
322 314 315 313 316 316 317 317 317 317 315 314 314 314 315 316 317 316 316 317 320 321 321 320 318 317 315 311 308 306 304 301 300 300 297 297 295 295 294 294 294 294 294 294
314 311 312 316 315 314 314 314 313 313 314 314 314 315 315 315 315 315 316 316 317 318 318 317 315 313 310 307 305 303 300 300 298 296 295 295 295 293 294 294 294 294 294 293
313 313 316 316 314 315 314 314 313 312 312 314 315 317 315 315 313 313 315 316 317 316 315 312 310 308 306 303 301 300 297 296 295 295 295 295 293 294 294 294 293 293 293 292
313 314 311 315 314 314 314 313 314 314 314 315 315 312 313 315 314 315 315 315 313 311 309 307 304 304 302 299 298 296 296 295 297 298 294 293 293 293 293 293 293 293 292 292
307 310 314 318 314 314 311 312 315 315 315 316 315 316 315 315 314 313 311 309 308 307 304 301 301 300 299 298 297 295 299 300 297 294 293 293 293 292 292 293 293 292 292 292
313 317 317 315 314 313 315 315 315 315 314 315 315 316 315 313 309 309 306 304 304 303 300 299 299 299 296 297 300 300 296 297 294 293 291 291 291 291 292 292 292 292 291 291
316 315 316 315 315 316 315 315 315 315 315 315 315 315 312 307 306 304 303 302 300 300 299 298 299 300 301 300 298 295 294 293 292 290 290 290 291 291 291 291 291 291 291 290
314 316 315 316 315 315 315 315 315 314 314 313 314 312 305 304 302 302 300 300 300 299 300 301 300 297 295 293 293 292 291 291 290 290 290 290 290 290 290 291 291 291 290 290
314 316 315 313 314 315 314 313 313 311 310 310 311 305 304 301 301 300 300 301 301 299 296 295 294 294 293 293 292 292 292 291 291 291 290 290 290 290 290 290 291 291 290 289
312 315 313 310 311 311 310 308 307 308 306 305 305 303 302 300 300 300 300 299 295 295 294 293 293 292 292 292 292 292 292 292 292 291 291 291 290 290 290 291 291 290 290 289
315 315 310 308 308 308 308 306 305 305 303 302 300 300 300 299 299 296 295 295 294 293 293 292 292 293 293 293 293 293 292 292 292 291 291 291 291 291 291 290 290 289 289 289
312 310 307 308 303 305 305 303 302 301 300 300 298 297 296 295 295 295 294 294 293 292 292 292 292 291 291 290 290 289 289 290 291 291 291 291 292 291 291 291 291 290 289 289
310 311 307 305 303 301 300 299 298 298 297 297 296 295 294 294 293 293 293 293 292 290 290 290 289 288 288 288 290 291 291 291 291 290 290 290 290 290 290 290 290 290 289 288
306 305 304 302 300 300 299 298 298 297 297 297 295 294 293 292 292 293 291 290 289 288 286 286 287 288 288 287 287 287 285 285 286 286 286 286 287 287 288 289 289 289 288 288
304 302 301 300 300 299 299 298 297 297 294 291 290 290 290 290 290 290 288 286 285 285 286 287 288 287 285 284 283 281 284 285 286 286 285 285 285 285 287 288 288 287 288 286
304 302 301 300 299 298 297 296 295 292 290 290 290 290 290 288 287 286 285 284 284 285 285 285 284 284 282 280 280 281 282 281 282 283 284 285 284 285 287 287 287 287 287 286
301 301 300 299 297 297 294 292 290 290 290 290 290 288 286 286 285 284 283 283 283 283 283 283 282 280 279 280 280 280 280 280 281 283 284 284 285 285 287 286 287 286 286 286
299 299 298 296 296 294 292 292 291 290 290 288 286 286 285 285 284 283 282 282 282 282 282 280 278 278 278 278 278 278 278 279 280 281 281 282 283 284 284 284 284 284 284 284
297 296 296 294 291 292 293 292 290 290 287 286 286 286 284 283 282 281 281 280 280 280 278 277 277 277 276 276 276 277 277 276 277 278 278 278 279 279 279 280 280 280 281 281
294 291 290 290 290 290 290 289 288 287 286 286 285 284 282 281 281 279 279 279 278 277 276 276 276 275 275 275 276 276 275 275 275 275 276 275 276 276 276 276 277 277 277 277
291 291 291 290 290 290 288 287 286 285 285 284 283 282 281 279 279 279 278 277 276 276 275 274 274 275 274 274 274 274 274 274 274 273 273 273 273 273 273 274 274 275 275 275
291 291 291 290 289 288 287 284 284 284 282 281 281 280 279 278 278 277 276 276 275 275 274 273 273 272 272 272 272 272 272 272 272 272 272 272 272 272 272 272 272 273 273 274
292 291 289 287 287 286 285 283 282 282 281 280 280 279 277 277 277 276 275 275 274 273 272 272 271 271 270 270 270 270 270 270 270 270 270 270 270 270 270 270 270 270 271 271
290 288 287 287 286 285 284 282 281 280 280 279 278 277 276 276 276 275 274 274 273 272 272 271 271 270 270 269 269 269 269 269 269 269 269 269 269 269 269 269 269 269 269 270
287 286 285 284 284 283 281 281 280 278 278 278 277 276 275 275 275 274 273 273 272 271 270 270 270 269 269 269 268 268 268 268 268 268 269 268 268 268 268 268 268 268 268 269

GFSNGP_850_thetae_054.txt.gz
Theta_e
317 318 319 319 319 319 318 317 317 316 316 316 315 313 314 316 317 322 326 326 326 324 322 320 320 320 321 321 320 318 316 313 311 309 305 300 300 299 299 298 297 297 295 294
319 317 316 317 317 316 317 316 316 316 316 312 313 313 313 314 316 316 319 321 324 324 322 321 320 321 321 320 317 314 311 310 307 303 300 300 300 300 297 296 296 295 294 294
317 312 315 314 315 315 316 315 316 315 314 312 311 311 313 315 315 316 317 319 320 321 321 321 321 321 320 317 312 308 306 304 300 299 300 299 297 296 297 296 294 294 294 293
312 310 313 316 314 314 313 312 312 312 312 312 312 313 313 314 315 316 317 318 321 322 322 321 320 318 314 309 306 304 302 300 298 298 297 297 299 297 295 294 294 293 293 293
312 313 314 315 313 311 312 313 312 311 311 314 314 314 314 314 314 314 314 315 316 318 318 316 313 310 308 305 302 300 298 296 296 298 300 298 296 295 293 293 293 293 293 293
311 312 312 313 313 313 311 312 313 314 314 313 313 311 311 313 314 314 314 314 314 313 312 310 306 305 303 300 299 297 295 296 298 300 296 294 293 292 292 293 293 292 292 292
304 308 309 312 313 313 310 309 314 315 315 315 313 313 311 312 312 311 310 309 308 307 306 304 301 301 300 297 297 298 300 301 297 296 294 293 291 291 291 291 291 291 292 292
309 309 314 315 314 312 310 313 314 314 314 316 314 311 309 310 308 307 307 304 303 303 300 299 299 299 299 300 301 301 298 296 296 294 292 291 290 290 290 290 290 291 291 291
313 312 313 314 314 314 314 314 314 314 314 314 313 309 306 305 304 303 302 301 300 300 299 299 299 300 300 300 298 296 293 292 291 290 290 290 290 289 290 290 290 290 290 291
313 314 314 314 315 315 315 314 313 314 314 314 311 306 304 302 300 300 299 299 299 300 300 299 296 295 294 293 292 291 291 291 291 291 291 290 290 290 290 290 290 290 290 290
314 313 313 314 313 314 313 312 313 312 311 310 310 303 302 300 299 299 299 299 298 296 295 294 293 293 292 292 292 291 292 292 292 292 292 292 291 291 291 290 290 290 290 290
311 314 312 311 309 311 311 310 309 309 307 304 304 302 300 299 300 299 296 295 295 294 293 292 292 292 292 292 292 292 292 292 291 291 290 290 291 291 291 291 291 291 290 290
313 314 311 308 308 308 309 306 305 306 304 302 300 300 300 299 296 295 294 293 293 293 292 292 292 292 292 292 291 291 290 289 289 290 290 291 290 290 289 289 289 289 290 291
314 311 306 307 305 306 306 304 303 301 300 299 297 296 295 295 295 294 293 293 293 291 290 290 290 289 288 287 287 287 287 287 287 286 285 285 285 286 285 286 287 287 288 289
309 311 309 305 304 303 302 301 299 297 296 296 295 295 294 293 293 293 293 292 291 290 288 287 287 287 287 287 286 285 283 282 281 282 284 284 285 285 285 285 285 286 287 288
307 307 304 303 301 300 299 298 297 295 295 294 294 293 293 293 293 292 290 289 288 287 286 286 286 286 285 284 283 281 281 280 280 280 280 280 281 283 284 284 284 284 286 288
303 300 301 300 300 298 298 298 297 296 295 294 292 291 291 290 290 288 287 286 286 285 285 285 284 283 282 281 280 280 280 279 279 279 281 282 282 283 283 283 284 286 286 286
306 304 303 301 299 298 298 297 297 294 291 290 290 290 289 288 287 286 286 284 284 283 283 283 282 280 279 279 278 278 278 278 278 278 279 280 280 280 281 282 283 284 286 286
303 301 300 299 299 298 297 295 292 290 290 290 289 288 287 287 286 285 284 283 283 282 282 281 279 278 278 277 277 277 277 277 277 277 277 278 278 278 278 279 280 281 281 282
300 300 299 298 297 296 293 291 290 290 289 287 286 286 286 285 284 283 282 282 281 280 279 278 277 277 276 276 276 276 276 276 276 276 276 276 276 276 276 276 277 277 277 277
300 299 297 296 294 292 291 290 290 289 287 285 285 285 284 283 282 281 281 280 280 278 277 276 276 276 276 275 275 275 275 275 275 275 274 274 274 274 274 274 274 275 275 275
296 296 295 294 292 292 291 289 288 287 286 285 284 283 282 282 281 280 279 278 277 276 276 275 275 275 275 275 274 274 274 273 273 273 273 273 273 272 272 272 272 273 273 273
294 293 292 290 291 290 288 287 286 285 285 285 283 282 281 280 279 278 278 277 276 275 274 274 273 274 274 274 274 273 273 273 272 272 272 271 271 271 271 271 271 271 271 271
291 290 290 290 289 288 287 285 285 285 284 283 281 280 279 278 278 277 276 275 274 274 273 273 273 273 273 273 272 272 272 271 271 271 271 270 270 270 270 270 270 270 270 270
291 291 290 288 287 286 285 284 283 283 282 281 279 279 278 277 277 276 275 274 274 273 273 273 272 272 272 271 271 271 271 270 270 270 270 269 269 269 269 269 269 269 269 269
291 290 287 286 286 284 284 283 282 281 280 278 278 277 276 276 276 275 274 274 273 273 272 272 272 271 270 270 270 270 270 270 269 269 268 268 268 268 268 268 268 268 268 268
288 287 285 284 283 283 282 280 279 278 278 278 277 276 275 275 274 274 273 273 272 272 271 271 270 270 269 269 269 269 269 269 268 268 268 268 268 268 268 268 268 268 268 268

GFSNGP_850_thetae_057.txt.gz
Theta_e
316 316 316 317 317 316 317 315 316 315 314 315 313 312 313 315 316 318 320 324 326 325 326 326 327 326 322 320 319 319 318 317 315 311 310 309 305 300 299 299 298 299 297 296
318 316 316 318 316 316 315 316 315 315 315 311 312 312 311 313 314 318 320 322 325 325 324 322 323 323 321 320 319 318 317 315 311 308 306 302 299 301 298 297 300 296 296 295
315 312 314 314 314 315 315 314 314 314 312 311 311 310 312 314 316 317 318 318 319 321 322 321 320 319 320 320 318 316 312 310 307 303 300 300 299 299 301 300 297 296 294 294
310 310 312 314 313 313 313 311 310 311 311 311 310 312 313 315 316 317 318 319 319 320 320 320 320 319 319 316 313 310 307 303 300 298 298 297 299 301 299 295 294 294 293 292
312 313 313 316 311 311 312 313 312 311 310 312 313 313 313 313 313 314 315 317 319 320 320 319 318 316 315 311 307 303 300 297 296 297 298 299 300 297 295 293 292 292 292 292
307 313 315 315 313 312 310 311 311 311 311 312 312 308 309 312 312 313 313 313 315 315 316 314 312 310 308 304 301 298 297 297 298 298 300 296 294 293 291 290 290 290 290 290
304 309 311 310 312 311 311 310 312 313 313 312 310 309 312 311 311 311 311 311 310 309 309 307 304 303 302 298 297 297 298 299 301 297 296 294 293 291 290 290 290 290 290 290
306 305 315 312 312 310 309 312 313 314 314 314 313 311 310 308 307 306 306 304 304 303 301 299 299 300 299 300 300 301 301 298 296 294 292 290 290 289 289 289 289 289 289 289
313 312 311 313 312 313 314 314 314 314 315 314 312 309 307 305 303 302 301 301 300 301 299 299 300 300 299 298 297 294 292 291 291 290 290 291 291 290 290 290 290 290 290 290
313 314 313 313 313 313 314 314 314 314 314 314 312 307 304 302 300 299 299 299 299 299 299 299 296 294 294 293 292 291 291 291 291 291 291 291 291 291 291 291 291 291 291 291
312 312 313 313 313 314 313 314 313 313 313 313 311 304 303 300 299 299 299 299 299 299 296 294 293 292 292 292 291 291 291 291 291 291 291 291 290 290 290 290 290 290 290 290
312 313 312 313 311 311 312 312 312 312 309 307 307 303 301 299 299 299 297 295 294 293 293 292 292 292 292 292 291 291 291 290 289 288 288 288 287 286 285 284 284 285 285 285
313 314 313 312 309 309 311 309 308 308 307 305 302 301 299 299 296 295 294 293 293 292 292 292 291 291 290 289 288 288 287 286 286 284 283 283 282 281 282 282 282 282 283 284
314 312 306 308 306 307 307 305 304 303 302 301 299 299 298 296 295 294 293 293 292 290 290 289 289 288 287 287 287 286 284 283 283 282 281 281 280 280 281 282 283 282 282 283
309 311 310 307 305 304 304 302 301 300 299 298 297 297 296 294 293 293 292 292 291 289 288 287 287 287 286 285 284 283 282 281 281 280 279 279 280 281 281 281 281 282 282 283
306 307 306 305 303 301 301 300 299 296 296 295 295 294 293 293 293 292 290 288 287 287 287 286 285 285 284 282 281 281 280 280 279 279 278 278 279 280 280 280 280 280 280 281
304 300 301 300 299 299 298 298 297 296 294 294 293 293 293 292 290 288 287 287 287 286 285 284 283 282 281 280 280 279 279 278 278 277 277 277 277 277 278 278 277 278 279 280
308 306 303 303 299 298 297 296 295 295 294 293 292 291 290 288 288 287 286 286 284 284 283 283 281 280 279 279 279 278 278 277 277 276 276 276 276 276 276 276 276 276 277 278
306 304 302 300 299 298 297 296 295 293 291 290 290 289 287 287 287 286 285 284 283 282 282 281 279 279 278 278 277 277 276 276 276 275 275 275 275 275 275 275 274 275 275 275
302 301 300 299 298 298 297 295 291 290 290 289 288 287 287 286 285 284 283 282 282 281 280 279 278 277 277 277 276 276 276 275 275 275 274 274 274 274 274 274 273 273 273 274
300 300 299 298 297 296 294 292 291 289 288 286 286 286 286 285 283 282 281 281 280 279 278 277 277 276 276 276 275 275 275 274 274 274 274 273 273 273 272 272 272 272 272 272
298 298 297 296 293 291 290 290 289 288 286 286 285 285 284 283 281 280 280 279 278 277 277 276 275 275 275 275 274 274 274 273 273 273 273 272 272 272 271 271 271 271 271 271
297 296 296 294 292 291 289 288 286 286 286 285 284 283 282 281 280 279 279 278 277 276 275 274 274 273 273 273 273 273 273 273 272 272 272 271 271 270 270 270 270 270 270 270
295 294 292 292 291 290 288 285 285 284 284 283 282 281 280 280 279 278 277 276 275 274 274 273 272 272 272 272 272 272 272 272 272 271 271 270 270 270 269 269 269 269 269 269
291 290 290 289 288 286 286 285 284 283 283 282 281 280 279 278 278 277 276 275 274 273 273 272 272 272 272 272 272 272 271 271 270 270 269 269 269 269 269 269 269 268 268 268
289 289 288 287 286 285 284 284 283 282 281 280 279 278 278 277 276 275 274 274 273 272 272 271 271 271 271 271 271 271 270 270 269 268 269 269 269 269 269 268 268 268 268 268
289 288 286 285 283 282 282 281 280 279 278 278 277 277 276 275 274 274 273 272 272 271 271 270 270 270 269 270 270 270 269 268 268 268 268 268 268 268 268 268 268 268 268 268